| time (UTC) | temp F | wind direction | speed MPH | gust MPH | rain 1hr in | rain 24hr in | rain mn in | humidity % | barometer mb |
| 20260507004047 | 44 | 311 | 1.0 | 1.0 | 0.00 | 0.13 | 0.02 | 98 | 1010.6 |
| 20260507003948 | 44 | 312 | 3.0 | 3.0 | 0.00 | 0.13 | 0.02 | 98 | 1010.6 |
| 20260507003847 | 44 | 310 | 2.0 | 4.0 | 0.00 | 0.13 | 0.02 | 98 | 1010.6 |
| 20260507003747 | 44 | 338 | 1.0 | 1.0 | 0.00 | 0.13 | 0.02 | 98 | 1010.6 |
| 20260507003647 | 44 | 0.0 | 0.0 | 0.00 | 0.14 | 0.02 | 98 | 1010.6 | |
| 20260507003537 | 44 | 312 | 4.0 | 4.0 | 0.00 | 0.14 | 0.02 | 98 | 1010.6 |
| 20260507003437 | 44 | 321 | 5.0 | 5.0 | 0.00 | 0.14 | 0.02 | 98 | 1010.6 |
| 20260507003337 | 44 | 317 | 3.0 | 3.0 | 0.00 | 0.14 | 0.02 | 98 | 1010.6 |
| 20260507003238 | 44 | 0.0 | 0.0 | 0.00 | 0.14 | 0.02 | 98 | 1010.6 | |
| 20260507003138 | 44 | 311 | 2.0 | 2.0 | 0.00 | 0.14 | 0.02 | 98 | 1010.6 |
| 20260507003027 | 44 | 331 | 3.0 | 3.0 | 0.00 | 0.14 | 0.02 | 98 | 1010.5 |
| 20260507002927 | 44 | 327 | 3.0 | 4.0 | 0.00 | 0.15 | 0.02 | 98 | 1010.6 |
| 20260507002828 | 44 | 323 | 2.0 | 2.0 | 0.00 | 0.15 | 0.02 | 98 | 1010.6 |
| 20260507002727 | 44 | 346 | 3.0 | 5.0 | 0.00 | 0.15 | 0.02 | 98 | 1010.5 |
| 20260507002627 | 44 | 326 | 3.0 | 3.0 | 0.00 | 0.15 | 0.02 | 98 | 1010.6 |
| 20260507002527 | 44 | 312 | 3.0 | 4.0 | 0.00 | 0.15 | 0.02 | 98 | 1010.6 |
| 20260507002427 | 44 | 319 | 3.0 | 3.0 | 0.00 | 0.15 | 0.01 | 98 | 1010.6 |
| 20260507002317 | 44 | 317 | 2.0 | 2.0 | 0.00 | 0.15 | 0.01 | 98 | 1010.6 |
| 20260507002217 | 44 | 313 | 5.0 | 6.0 | 0.00 | 0.15 | 0.01 | 98 | 1010.6 |
| 20260507002118 | 44 | 311 | 2.0 | 2.0 | 0.00 | 0.15 | 0.01 | 98 | 1010.5 |
| 20260507002017 | 44 | 312 | 3.0 | 3.0 | 0.00 | 0.15 | 0.01 | 98 | 1010.5 |
| 20260507001917 | 44 | 313 | 1.0 | 1.0 | 0.00 | 0.15 | 0.01 | 98 | 1010.6 |
| 20260507001817 | 44 | 304 | 4.0 | 5.0 | 0.00 | 0.15 | 0.01 | 98 | 1010.5 |
| 20260507001722 | 44 | 312 | 2.0 | 4.0 | 0.00 | 0.15 | 0.01 | 98 | 1010.5 |
| 20260507001607 | 44 | 0.0 | 0.0 | 0.00 | 0.15 | 0.01 | 98 | 1010.5 | |
| 20260507001507 | 44 | 0.0 | 0.0 | 0.00 | 0.15 | 0.01 | 98 | 1010.5 | |
| 20260507001407 | 44 | 0.0 | 0.0 | 0.00 | 0.15 | 0.01 | 98 | 1010.5 | |
| 20260507001307 | 44 | 324 | 1.0 | 2.0 | 0.00 | 0.15 | 0.01 | 98 | 1010.4 |
| 20260507001207 | 44 | 300 | 2.0 | 2.0 | 0.00 | 0.15 | 0.01 | 98 | 1010.5 |
| 20260507001108 | 44 | 300 | 1.0 | 1.0 | 0.00 | 0.15 | 0.01 | 98 | 1010.4 |
| 20260507000958 | 44 | 299 | 1.0 | 1.0 | 0.00 | 0.16 | 0.01 | 98 | 1010.4 |
| 20260507000857 | 44 | 313 | 1.0 | 1.0 | 0.00 | 0.16 | 0.01 | 98 | 1010.4 |
| 20260507000757 | 44 | 310 | 2.0 | 2.0 | 0.00 | 0.16 | 0.01 | 98 | 1010.4 |
| 20260507000658 | 44 | 324 | 4.0 | 6.0 | 0.00 | 0.16 | 0.01 | 98 | 1010.4 |
| 20260507000558 | 44 | 319 | 2.0 | 2.0 | 0.00 | 0.16 | 0.01 | 98 | 1010.4 |
| 20260507000457 | 44 | 321 | 5.0 | 5.0 | 0.00 | 0.16 | 0.01 | 98 | 1010.4 |
| 20260507000358 | 44 | 320 | 1.0 | 2.0 | 0.00 | 0.16 | 0.01 | 98 | 1010.4 |
| 20260507000247 | 44 | 317 | 2.0 | 2.0 | 0.00 | 0.16 | 0.01 | 98 | 1010.4 |
| 20260507000147 | 44 | 309 | 3.0 | 5.0 | 0.00 | 0.17 | 0.01 | 98 | 1010.4 |
| 20260507000047 | 44 | 325 | 3.0 | 3.0 | 0.00 | 0.17 | 0.01 | 98 | 1010.4 |
| 20260506235948 | 44 | 313 | 3.0 | 5.0 | 0.00 | 0.17 | 0.01 | 98 | 1010.4 |
| 20260506235848 | 44 | 313 | 5.0 | 5.0 | 0.00 | 0.17 | 0.01 | 98 | 1010.4 |
| 20260506235747 | 44 | 327 | 5.0 | 5.0 | 0.00 | 0.17 | 0.01 | 98 | 1010.4 |
| 20260506235651 | 44 | 328 | 3.0 | 3.0 | 0.00 | 0.17 | 0.01 | 98 | 1010.4 |
| 20260506235537 | 44 | 329 | 4.0 | 4.0 | 0.00 | 0.17 | 0.01 | 98 | 1010.4 |
| 20260506235438 | 44 | 321 | 2.0 | 2.0 | 0.00 | 0.17 | 0.01 | 98 | 1010.4 |
| 20260506235337 | 44 | 324 | 4.0 | 6.0 | 0.00 | 0.17 | 0.01 | 98 | 1010.4 |
| 20260506235237 | 44 | 323 | 4.0 | 4.0 | 0.00 | 0.17 | 0.01 | 98 | 1010.4 |
| 20260506235137 | 44 | 0.0 | 1.0 | 0.00 | 0.17 | 0.01 | 98 | 1010.4 | |
| 20260506235037 | 44 | 315 | 2.0 | 2.0 | 0.00 | 0.17 | 0.01 | 98 | 1010.5 |
| 20260506234927 | 44 | 313 | 1.0 | 1.0 | 0.00 | 0.17 | 0.01 | 98 | 1010.4 |
| 20260506234827 | 44 | 304 | 3.0 | 4.0 | 0.00 | 0.17 | 0.01 | 98 | 1010.5 |
| 20260506234728 | 44 | 317 | 5.0 | 5.0 | 0.00 | 0.17 | 0.01 | 98 | 1010.5 |
| 20260506234627 | 44 | 296 | 2.0 | 2.0 | 0.00 | 0.17 | 0.01 | 98 | 1010.4 |
| 20260506234527 | 44 | 316 | 3.0 | 4.0 | 0.00 | 0.17 | 0.01 | 98 | 1010.5 |
| 20260506234427 | 44 | 309 | 4.0 | 4.0 | 0.00 | 0.17 | 0.01 | 98 | 1010.5 |
| 20260506234328 | 44 | 315 | 4.0 | 4.0 | 0.00 | 0.17 | 0.01 | 98 | 1010.4 |
| 20260506234217 | 44 | 320 | 2.0 | 2.0 | 0.00 | 0.18 | 0.01 | 98 | 1010.5 |
| 20260506234117 | 44 | 0.0 | 0.0 | 0.00 | 0.18 | 0.01 | 98 | 1010.5 | |
| 20260506234017 | 44 | 325 | 3.0 | 3.0 | 0.00 | 0.18 | 0.01 | 98 | 1010.4 |
| 20260506233917 | 44 | 298 | 1.0 | 1.0 | 0.00 | 0.18 | 0.01 | 98 | 1010.4 |
| 20260506233817 | 44 | 323 | 3.0 | 4.0 | 0.00 | 0.18 | 0.01 | 98 | 1010.4 |
| 20260506233717 | 44 | 321 | 4.0 | 4.0 | 0.00 | 0.18 | 0.01 | 98 | 1010.5 |
| 20260506233621 | 44 | 319 | 4.0 | 4.0 | 0.00 | 0.18 | 0.01 | 98 | 1010.4 |
| 20260506233507 | 44 | 306 | 4.0 | 4.0 | 0.00 | 0.19 | 0.01 | 98 | 1010.4 |
| 20260506233407 | 44 | 319 | 4.0 | 4.0 | 0.00 | 0.19 | 0.00 | 98 | 1010.4 |
| 20260506233307 | 44 | 307 | 3.0 | 3.0 | 0.00 | 0.19 | 0.00 | 98 | 1010.4 |
| 20260506233208 | 44 | 306 | 3.0 | 4.0 | 0.00 | 0.19 | 0.00 | 98 | 1010.5 |
| 20260506233108 | 44 | 327 | 2.0 | 2.0 | 0.00 | 0.19 | 0.00 | 98 | 1010.4 |
| 20260506233007 | 44 | 329 | 2.0 | 2.0 | 0.00 | 0.19 | 0.00 | 98 | 1010.4 |
| 20260506232857 | 44 | 331 | 3.0 | 4.0 | 0.00 | 0.19 | 0.00 | 98 | 1010.4 |
| 20260506232757 | 44 | 319 | 3.0 | 3.0 | 0.00 | 0.19 | 0.00 | 98 | 1010.4 |
| 20260506232657 | 44 | 304 | 3.0 | 3.0 | 0.00 | 0.19 | 0.00 | 98 | 1010.5 |
| 20260506232557 | 44 | 317 | 3.0 | 3.0 | 0.00 | 0.19 | 0.00 | 98 | 1010.4 |
| 20260506232458 | 44 | 321 | 3.0 | 3.0 | 0.00 | 0.19 | 0.00 | 98 | 1010.5 |
| 20260506232357 | 44 | 316 | 4.0 | 7.0 | 0.00 | 0.19 | 0.00 | 98 | 1010.4 |
| 20260506232257 | 44 | 302 | 4.0 | 5.0 | 0.00 | 0.19 | 0.00 | 98 | 1010.4 |
| 20260506232147 | 44 | 333 | 2.0 | 3.0 | 0.00 | 0.19 | 0.00 | 98 | 1010.4 |
| 20260506232048 | 44 | 327 | 6.0 | 6.0 | 0.00 | 0.19 | 0.00 | 98 | 1010.4 |
| 20260506231947 | 44 | 314 | 4.0 | 5.0 | 0.00 | 0.19 | 0.00 | 98 | 1010.4 |
| 20260506231847 | 44 | 326 | 3.0 | 3.0 | 0.00 | 0.19 | 0.00 | 98 | 1010.3 |
| 20260506231748 | 45 | 0.0 | 0.0 | 0.00 | 0.19 | 0.00 | 98 | 1010.3 | |
| 20260506231647 | 44 | 311 | 5.0 | 5.0 | 0.00 | 0.19 | 0.00 | 98 | 1010.3 |
| 20260506231551 | 44 | 317 | 1.0 | 2.0 | 0.00 | 0.19 | 0.00 | 98 | 1010.3 |
| 20260506231437 | 44 | 317 | 6.0 | 6.0 | 0.00 | 0.19 | 0.00 | 98 | 1010.3 |
| 20260506231338 | 45 | 320 | 6.0 | 7.0 | 0.00 | 0.19 | 0.00 | 98 | 1010.3 |
| 20260506231237 | 45 | 310 | 4.0 | 5.0 | 0.00 | 0.20 | 0.00 | 98 | 1010.3 |
| 20260506231137 | 45 | 305 | 4.0 | 6.0 | 0.00 | 0.20 | 0.00 | 98 | 1010.3 |
| 20260506231037 | 45 | 311 | 3.0 | 4.0 | 0.00 | 0.20 | 0.00 | 98 | 1010.3 |
| 20260506230938 | 45 | 316 | 4.0 | 4.0 | 0.00 | 0.20 | 0.00 | 98 | 1010.2 |
| 20260506230827 | 45 | 311 | 4.0 | 4.0 | 0.00 | 0.20 | 0.00 | 98 | 1010.2 |
| 20260506230727 | 45 | 328 | 5.0 | 5.0 | 0.00 | 0.20 | 0.00 | 98 | 1010.2 |
| 20260506230627 | 45 | 348 | 8.0 | 9.0 | 0.00 | 0.20 | 0.00 | 98 | 1010.3 |
| 20260506230527 | 45 | 320 | 5.0 | 5.0 | 0.00 | 0.20 | 0.00 | 98 | 1010.3 |
| 20260506230427 | 45 | 295 | 2.0 | 2.0 | 0.00 | 0.20 | 0.00 | 98 | 1010.3 |
| 20260506230327 | 45 | 322 | 4.0 | 5.0 | 0.00 | 0.20 | 0.00 | 98 | 1010.3 |
| 20260506230228 | 45 | 326 | 4.0 | 4.0 | 0.00 | 0.20 | 0.00 | 98 | 1010.3 |
| 20260506230117 | 45 | 322 | 3.0 | 3.0 | 0.00 | 0.20 | 0.00 | 98 | 1010.3 |
| 20260506230017 | 45 | 320 | 3.0 | 3.0 | 0.00 | 0.20 | 0.00 | 98 | 1010.3 |
| 20260506225917 | 45 | 320 | 4.0 | 4.0 | 0.00 | 0.20 | 0.00 | 98 | 1010.3 |
| 20260506225817 | 45 | 311 | 4.0 | 4.0 | 0.00 | 0.20 | 0.00 | 98 | 1010.3 |
| 20260506225717 | 45 | 304 | 3.0 | 4.0 | 0.00 | 0.20 | 0.00 | 98 | 1010.3 |
| 20260506225617 | 45 | 321 | 3.0 | 3.0 | 0.00 | 0.20 | 0.00 | 98 | 1010.3 |
| 20260506225521 | 45 | 0.0 | 0.0 | 0.00 | 0.20 | 0.00 | 98 | 1010.3 | |
| 20260506225407 | 45 | 355 | 3.0 | 3.0 | 0.00 | 0.20 | 0.00 | 98 | 1010.3 |
| 20260506225307 | 45 | 317 | 5.0 | 5.0 | 0.00 | 0.20 | 0.00 | 98 | 1010.3 |
| 20260506225207 | 45 | 327 | 2.0 | 2.0 | 0.00 | 0.20 | 0.00 | 98 | 1010.3 |
| 20260506225108 | 45 | 326 | 4.0 | 4.0 | 0.00 | 0.20 | 0.00 | 98 | 1010.3 |
| 20260506225007 | 45 | 342 | 5.0 | 5.0 | 0.00 | 0.20 | 0.00 | 98 | 1010.3 |
| 20260506224907 | 45 | 315 | 5.0 | 5.0 | 0.00 | 0.20 | 0.00 | 98 | 1010.3 |
| 20260506224757 | 45 | 316 | 6.0 | 6.0 | 0.00 | 0.20 | 0.00 | 98 | 1010.3 |
| 20260506224658 | 45 | 323 | 2.0 | 2.0 | 0.00 | 0.20 | 0.00 | 98 | 1010.3 |
| 20260506224557 | 45 | 327 | 3.0 | 3.0 | 0.00 | 0.20 | 0.00 | 98 | 1010.3 |
| 20260506224457 | 45 | 325 | 3.0 | 3.0 | 0.00 | 0.20 | 0.00 | 98 | 1010.3 |
| 20260506224357 | 45 | 323 | 6.0 | 6.0 | 0.00 | 0.20 | 0.00 | 98 | 1010.3 |
| 20260506224257 | 45 | 326 | 4.0 | 4.0 | 0.00 | 0.20 | 0.00 | 98 | 1010.2 |
| 20260506224157 | 45 | 321 | 6.0 | 7.0 | 0.00 | 0.20 | 0.00 | 98 | 1010.3 |
| 20260506224047 | 45 | 315 | 4.0 | 4.0 | 0.00 | 0.20 | 0.00 | 98 | 1010.3 |
| 20260506223948 | 45 | 316 | 3.0 | 3.0 | 0.00 | 0.20 | 0.00 | 98 | 1010.2 |
| 20260506223847 | 45 | 312 | 4.0 | 5.0 | 0.00 | 0.20 | 0.00 | 98 | 1010.2 |
| 20260506223747 | 45 | 310 | 5.0 | 5.0 | 0.00 | 0.20 | 0.00 | 98 | 1010.2 |
| 20260506223647 | 45 | 313 | 3.0 | 3.0 | 0.00 | 0.20 | 0.00 | 98 | 1010.2 |
| 20260506223547 | 45 | 338 | 3.0 | 3.0 | 0.00 | 0.20 | 0.00 | 98 | 1010.2 |
| 20260506223451 | 45 | 329 | 4.0 | 4.0 | 0.00 | 0.20 | 0.00 | 98 | 1010.2 |
| 20260506223337 | 45 | 321 | 6.0 | 7.0 | 0.00 | 0.20 | 0.00 | 98 | 1010.2 |
| 20260506223237 | 45 | 323 | 5.0 | 5.0 | 0.00 | 0.20 | 0.00 | 98 | 1010.2 |
| 20260506223137 | 45 | 325 | 3.0 | 3.0 | 0.00 | 0.21 | 0.00 | 98 | 1010.2 |
| 20260506223037 | 45 | 315 | 4.0 | 4.0 | 0.00 | 0.21 | 0.00 | 98 | 1010.2 |
| 20260506222937 | 45 | 314 | 5.0 | 6.0 | 0.00 | 0.21 | 0.00 | 98 | 1010.2 |
| 20260506222837 | 45 | 320 | 3.0 | 3.0 | 0.00 | 0.21 | 0.00 | 98 | 1010.2 |
| 20260506222727 | 45 | 0.0 | 0.0 | 0.00 | 0.21 | 0.00 | 98 | 1010.2 | |
| 20260506222627 | 45 | 0.0 | 2.0 | 0.00 | 0.21 | 0.00 | 98 | 1010.1 | |
| 20260506222527 | 45 | 311 | 1.0 | 1.0 | 0.00 | 0.21 | 0.00 | 98 | 1010.2 |
| 20260506222428 | 45 | 298 | 3.0 | 3.0 | 0.00 | 0.21 | 0.00 | 98 | 1010.1 |
| 20260506222327 | 45 | 323 | 2.0 | 2.0 | 0.00 | 0.21 | 0.00 | 98 | 1010.1 |
| 20260506222227 | 45 | 325 | 3.0 | 3.0 | 0.00 | 0.21 | 0.00 | 98 | 1010.1 |
| 20260506222127 | 45 | 329 | 3.0 | 3.0 | 0.00 | 0.21 | 0.00 | 98 | 1010.1 |
| 20260506222027 | 45 | 314 | 5.0 | 6.0 | 0.00 | 0.21 | 0.00 | 98 | 1010.1 |
| 20260506221927 | 45 | 321 | 2.0 | 2.0 | 0.00 | 0.21 | 0.00 | 98 | 1010.1 |
| 20260506221827 | 45 | 314 | 4.0 | 4.0 | 0.00 | 0.21 | 0.00 | 98 | 1010.1 |
| 20260506221728 | 45 | 316 | 3.0 | 3.0 | 0.00 | 0.21 | 0.00 | 98 | 1010.1 |
| 20260506221627 | 45 | 308 | 1.0 | 1.0 | 0.00 | 0.21 | 0.00 | 98 | 1010.1 |
| 20260506221527 | 45 | 313 | 2.0 | 3.0 | 0.00 | 0.21 | 0.00 | 98 | 1010.2 |
| 20260506221427 | 45 | 324 | 5.0 | 5.0 | 0.00 | 0.21 | 0.00 | 98 | 1010.1 |
| 20260506221328 | 45 | 314 | 5.0 | 6.0 | 0.00 | 0.21 | 0.00 | 98 | 1010.2 |
| 20260506221227 | 45 | 314 | 2.0 | 2.0 | 0.00 | 0.21 | 0.00 | 98 | 1010.1 |
| 20260506221127 | 45 | 320 | 3.0 | 4.0 | 0.00 | 0.21 | 0.00 | 98 | 1010.1 |
| 20260506221027 | 45 | 313 | 5.0 | 5.0 | 0.00 | 0.21 | 0.00 | 98 | 1010.2 |
| 20260506220927 | 45 | 311 | 3.0 | 3.0 | 0.00 | 0.22 | 0.00 | 98 | 1010.1 |
| 20260506220827 | 45 | 325 | 3.0 | 3.0 | 0.00 | 0.22 | 0.00 | 98 | 1010.1 |
| 20260506220727 | 45 | 296 | 3.0 | 3.0 | 0.00 | 0.22 | 0.00 | 98 | 1010.1 |
| 20260506220628 | 45 | 313 | 1.0 | 1.0 | 0.00 | 0.22 | 0.00 | 98 | 1010.1 |
| 20260506220527 | 45 | 323 | 2.0 | 2.0 | 0.00 | 0.22 | 0.00 | 98 | 1010.0 |
| 20260506220427 | 45 | 320 | 5.0 | 5.0 | 0.00 | 0.22 | 0.00 | 98 | 1010.1 |
| 20260506220327 | 45 | 313 | 6.0 | 6.0 | 0.00 | 0.22 | 0.00 | 98 | 1009.9 |
| 20260506220227 | 45 | 308 | 2.0 | 3.0 | 0.00 | 0.22 | 0.00 | 98 | 1010.1 |
| 20260506220127 | 45 | 317 | 1.0 | 2.0 | 0.00 | 0.22 | 0.00 | 98 | 1010.0 |
| 20260506220027 | 45 | 330 | 3.0 | 4.0 | 0.00 | 0.22 | 0.00 | 98 | 1009.9 |
| 20260506215912 | 45 | 318 | 2.0 | 2.0 | 0.00 | 0.23 | 0.63 | 98 | 1009.9 |
| 20260506215812 | 45 | 310 | 2.0 | 5.0 | 0.00 | 0.23 | 0.63 | 98 | 1009.9 |
| 20260506215712 | 45 | 317 | 5.0 | 6.0 | 0.00 | 0.23 | 0.63 | 98 | 1009.9 |
| 20260506215612 | 45 | 327 | 3.0 | 4.0 | 0.00 | 0.23 | 0.63 | 98 | 1010.0 |
| 20260506215513 | 45 | 333 | 2.0 | 4.0 | 0.00 | 0.23 | 0.63 | 98 | 1009.9 |
| 20260506215412 | 45 | 310 | 3.0 | 4.0 | 0.00 | 0.23 | 0.63 | 98 | 1009.9 |
| 20260506215312 | 45 | 315 | 6.0 | 6.0 | 0.00 | 0.23 | 0.63 | 98 | 1010.0 |
| 20260506215212 | 45 | 290 | 2.0 | 2.0 | 0.00 | 0.23 | 0.63 | 98 | 1010.1 |
| 20260506215112 | 45 | 318 | 3.0 | 4.0 | 0.00 | 0.23 | 0.63 | 98 | 1010.0 |
| 20260506215017 | 45 | 317 | 2.0 | 3.0 | 0.00 | 0.23 | 0.63 | 98 | 1010.0 |
| 20260506214912 | 44 | 312 | 4.0 | 4.0 | 0.00 | 0.23 | 0.63 | 98 | 1010.0 |
| 20260506214812 | 45 | 323 | 2.0 | 2.0 | 0.00 | 0.23 | 0.63 | 97 | 1010.0 |
| 20260506214712 | 44 | 328 | 2.0 | 2.0 | 0.00 | 0.23 | 0.63 | 97 | 1010.0 |
| 20260506214612 | 44 | 309 | 3.0 | 3.0 | 0.00 | 0.23 | 0.63 | 97 | 1010.0 |
| 20260506214512 | 44 | 316 | 3.0 | 3.0 | 0.00 | 0.23 | 0.63 | 97 | 1010.0 |
| 20260506214413 | 44 | 314 | 5.0 | 5.0 | 0.00 | 0.23 | 0.63 | 97 | 1010.0 |
| 20260506214312 | 44 | 304 | 1.0 | 1.0 | 0.00 | 0.23 | 0.63 | 97 | 1010.0 |
| 20260506214212 | 44 | 308 | 3.0 | 5.0 | 0.00 | 0.23 | 0.63 | 97 | 1010.0 |
| 20260506214112 | 44 | 325 | 4.0 | 4.0 | 0.00 | 0.23 | 0.63 | 97 | 1010.0 |
| 20260506214012 | 44 | 345 | 4.0 | 4.0 | 0.00 | 0.23 | 0.63 | 97 | 1010.0 |
| 20260506213912 | 44 | 330 | 3.0 | 3.0 | 0.00 | 0.23 | 0.63 | 98 | 1010.0 |
| 20260506213812 | 44 | 324 | 4.0 | 5.0 | 0.00 | 0.23 | 0.63 | 98 | 1010.0 |
| 20260506213712 | 44 | 341 | 4.0 | 4.0 | 0.00 | 0.23 | 0.63 | 98 | 1010.0 |
| 20260506213612 | 44 | 321 | 4.0 | 4.0 | 0.00 | 0.23 | 0.63 | 98 | 1010.0 |
| 20260506213512 | 44 | 350 | 4.0 | 5.0 | 0.00 | 0.23 | 0.63 | 98 | 1010.0 |
| 20260506213412 | 44 | 321 | 5.0 | 5.0 | 0.00 | 0.23 | 0.63 | 98 | 1010.0 |
| 20260506213312 | 44 | 294 | 4.0 | 4.0 | 0.00 | 0.23 | 0.63 | 98 | 1009.9 |
| 20260506213212 | 44 | 314 | 4.0 | 4.0 | 0.00 | 0.23 | 0.63 | 98 | 1009.9 |
| 20260506213112 | 44 | 311 | 5.0 | 7.0 | 0.00 | 0.23 | 0.63 | 98 | 1009.9 |
| 20260506213012 | 44 | 318 | 8.0 | 10.0 | 0.00 | 0.23 | 0.63 | 98 | 1009.9 |
| 20260506212912 | 44 | 326 | 3.0 | 3.0 | 0.00 | 0.23 | 0.63 | 98 | 1009.9 |
| 20260506212812 | 44 | 338 | 5.0 | 5.0 | 0.00 | 0.23 | 0.63 | 98 | 1009.9 |
| 20260506212712 | 44 | 341 | 6.0 | 6.0 | 0.00 | 0.23 | 0.63 | 97 | 1009.9 |
| 20260506212612 | 44 | 317 | 7.0 | 7.0 | 0.00 | 0.23 | 0.63 | 98 | 1009.9 |
| 20260506212512 | 44 | 321 | 5.0 | 5.0 | 0.00 | 0.24 | 0.63 | 98 | 1009.9 |
| 20260506212412 | 44 | 326 | 6.0 | 6.0 | 0.00 | 0.24 | 0.63 | 97 | 1009.9 |
| 20260506212312 | 44 | 321 | 3.0 | 3.0 | 0.00 | 0.24 | 0.63 | 97 | 1009.9 |
| 20260506212213 | 44 | 306 | 6.0 | 6.0 | 0.00 | 0.24 | 0.63 | 98 | 1009.8 |
| 20260506212112 | 44 | 336 | 5.0 | 5.0 | 0.00 | 0.24 | 0.63 | 97 | 1009.8 |
| 20260506212012 | 44 | 312 | 5.0 | 5.0 | 0.00 | 0.24 | 0.63 | 98 | 1009.9 |
| 20260506211912 | 44 | 311 | 1.0 | 2.0 | 0.00 | 0.24 | 0.63 | 97 | 1009.8 |
| 20260506211812 | 44 | 0.0 | 0.0 | 0.00 | 0.24 | 0.63 | 97 | 1009.9 | |
| 20260506211712 | 44 | 331 | 5.0 | 7.0 | 0.00 | 0.24 | 0.63 | 97 | 1009.9 |
| 20260506211612 | 44 | 311 | 3.0 | 6.0 | 0.00 | 0.24 | 0.63 | 97 | 1009.8 |
| 20260506211512 | 44 | 285 | 3.0 | 4.0 | 0.00 | 0.24 | 0.63 | 97 | 1009.9 |
| 20260506211412 | 44 | 306 | 5.0 | 6.0 | 0.00 | 0.24 | 0.63 | 97 | 1009.9 |
| 20260506211312 | 44 | 325 | 4.0 | 5.0 | 0.00 | 0.24 | 0.63 | 97 | 1009.8 |
| 20260506211212 | 44 | 339 | 2.0 | 3.0 | 0.00 | 0.24 | 0.63 | 97 | 1009.9 |
| 20260506211113 | 44 | 333 | 2.0 | 2.0 | 0.00 | 0.24 | 0.63 | 97 | 1009.8 |
| 20260506211012 | 44 | 334 | 3.0 | 4.0 | 0.00 | 0.24 | 0.63 | 97 | 1009.8 |
| 20260506210912 | 44 | 340 | 4.0 | 5.0 | 0.00 | 0.24 | 0.63 | 97 | 1009.8 |
| 20260506210812 | 44 | 331 | 6.0 | 7.0 | 0.00 | 0.24 | 0.63 | 97 | 1009.8 |
| 20260506210712 | 44 | 338 | 6.0 | 7.0 | 0.00 | 0.24 | 0.63 | 97 | 1009.8 |
| 20260506210612 | 44 | 323 | 6.0 | 6.0 | 0.00 | 0.24 | 0.63 | 97 | 1009.8 |
| 20260506210512 | 44 | 301 | 7.0 | 8.0 | 0.00 | 0.24 | 0.63 | 97 | 1009.8 |
| 20260506210412 | 44 | 312 | 4.0 | 4.0 | 0.00 | 0.24 | 0.63 | 97 | 1009.8 |
| 20260506210312 | 44 | 322 | 5.0 | 5.0 | 0.00 | 0.24 | 0.63 | 97 | 1009.8 |
| 20260506210212 | 44 | 316 | 5.0 | 7.0 | 0.00 | 0.24 | 0.63 | 97 | 1009.8 |
| 20260506210112 | 44 | 333 | 5.0 | 5.0 | 0.00 | 0.24 | 0.63 | 97 | 1009.8 |
| 20260506210013 | 44 | 326 | 4.0 | 5.0 | 0.00 | 0.24 | 0.63 | 97 | 1009.7 |
| 20260506205912 | 44 | 308 | 6.0 | 7.0 | 0.00 | 0.25 | 0.63 | 97 | 1009.8 |
| 20260506205812 | 44 | 316 | 7.0 | 8.0 | 0.00 | 0.25 | 0.63 | 97 | 1009.8 |
| 20260506205711 | 44 | 308 | 3.0 | 5.0 | 0.00 | 0.25 | 0.63 | 97 | 1009.7 |
| 20260506205612 | 44 | 325 | 6.0 | 6.0 | 0.00 | 0.25 | 0.63 | 97 | 1009.7 |
| 20260506205512 | 44 | 305 | 8.0 | 9.0 | 0.00 | 0.25 | 0.63 | 97 | 1009.8 |
| 20260506205412 | 44 | 332 | 5.0 | 6.0 | 0.00 | 0.25 | 0.63 | 97 | 1009.7 |
| 20260506205312 | 44 | 330 | 4.0 | 5.0 | 0.00 | 0.25 | 0.63 | 97 | 1009.7 |
| 20260506205212 | 44 | 310 | 5.0 | 5.0 | 0.00 | 0.26 | 0.63 | 97 | 1009.7 |
| 20260506205112 | 44 | 325 | 3.0 | 4.0 | 0.00 | 0.26 | 0.63 | 97 | 1009.6 |
| 20260506205012 | 44 | 322 | 5.0 | 5.0 | 0.00 | 0.26 | 0.63 | 97 | 1009.6 |
| 20260506204913 | 44 | 318 | 3.0 | 3.0 | 0.00 | 0.26 | 0.63 | 97 | 1009.7 |
| 20260506204812 | 44 | 319 | 4.0 | 4.0 | 0.00 | 0.26 | 0.63 | 97 | 1009.7 |
| 20260506204712 | 44 | 330 | 5.0 | 5.0 | 0.00 | 0.26 | 0.63 | 97 | 1009.7 |
| 20260506204612 | 44 | 320 | 5.0 | 5.0 | 0.00 | 0.26 | 0.63 | 97 | 1009.7 |
| 20260506204512 | 44 | 313 | 3.0 | 3.0 | 0.00 | 0.26 | 0.63 | 97 | 1009.7 |
| 20260506204412 | 44 | 315 | 6.0 | 6.0 | 0.00 | 0.26 | 0.63 | 97 | 1009.7 |
| 20260506204312 | 45 | 315 | 6.0 | 6.0 | 0.00 | 0.26 | 0.63 | 97 | 1009.7 |
| 20260506204212 | 44 | 329 | 4.0 | 4.0 | 0.00 | 0.26 | 0.63 | 97 | 1009.7 |
| 20260506204112 | 45 | 322 | 4.0 | 6.0 | 0.00 | 0.26 | 0.63 | 97 | 1009.7 |
| 20260506204012 | 44 | 336 | 4.0 | 5.0 | 0.00 | 0.26 | 0.63 | 97 | 1009.7 |
| 20260506203912 | 45 | 337 | 6.0 | 6.0 | 0.00 | 0.26 | 0.63 | 97 | 1009.7 |
| 20260506203813 | 45 | 308 | 3.0 | 7.0 | 0.00 | 0.27 | 0.63 | 97 | 1009.7 |
| 20260506203711 | 45 | 291 | 6.0 | 8.0 | 0.00 | 0.27 | 0.63 | 97 | 1009.7 |
| 20260506203612 | 45 | 322 | 7.0 | 8.0 | 0.00 | 0.27 | 0.63 | 97 | 1009.6 |
| 20260506203512 | 45 | 316 | 5.0 | 5.0 | 0.00 | 0.27 | 0.63 | 97 | 1009.6 |
| 20260506203412 | 45 | 324 | 5.0 | 5.0 | 0.00 | 0.27 | 0.63 | 97 | 1009.7 |
| 20260506203312 | 45 | 306 | 7.0 | 7.0 | 0.00 | 0.27 | 0.63 | 97 | 1009.7 |
| 20260506203212 | 45 | 329 | 6.0 | 7.0 | 0.00 | 0.27 | 0.63 | 97 | 1009.7 |
| 20260506203112 | 45 | 320 | 7.0 | 8.0 | 0.00 | 0.27 | 0.63 | 97 | 1009.6 |
| 20260506203012 | 45 | 346 | 7.0 | 8.0 | 0.00 | 0.27 | 0.63 | 97 | 1009.7 |
| 20260506202912 | 45 | 331 | 8.0 | 8.0 | 0.00 | 0.27 | 0.63 | 97 | 1009.7 |
| 20260506202812 | 45 | 326 | 10.0 | 10.0 | 0.00 | 0.27 | 0.63 | 97 | 1009.7 |
| 20260506202713 | 45 | 320 | 7.0 | 8.0 | 0.00 | 0.27 | 0.63 | 97 | 1009.7 |
| 20260506202612 | 45 | 313 | 6.0 | 6.0 | 0.00 | 0.27 | 0.63 | 97 | 1009.7 |
| 20260506202512 | 45 | 319 | 2.0 | 3.0 | 0.00 | 0.27 | 0.63 | 97 | 1009.6 |
| 20260506202412 | 45 | 325 | 4.0 | 4.0 | 0.00 | 0.27 | 0.63 | 97 | 1009.6 |
| 20260506202312 | 45 | 321 | 3.0 | 3.0 | 0.00 | 0.27 | 0.63 | 97 | 1009.6 |
| 20260506202212 | 45 | 312 | 2.0 | 2.0 | 0.00 | 0.27 | 0.63 | 97 | 1009.6 |
| 20260506202112 | 45 | 327 | 4.0 | 5.0 | 0.00 | 0.27 | 0.63 | 97 | 1009.6 |
| 20260506202012 | 45 | 310 | 4.0 | 4.0 | 0.00 | 0.27 | 0.63 | 97 | 1009.6 |
| 20260506201912 | 45 | 327 | 3.0 | 3.0 | 0.00 | 0.27 | 0.63 | 97 | 1009.6 |
| 20260506201812 | 45 | 312 | 5.0 | 5.0 | 0.00 | 0.27 | 0.63 | 97 | 1009.6 |
| 20260506201712 | 45 | 319 | 4.0 | 4.0 | 0.00 | 0.27 | 0.63 | 97 | 1009.6 |
| 20260506201612 | 45 | 331 | 3.0 | 3.0 | 0.00 | 0.27 | 0.63 | 97 | 1009.6 |
| 20260506201511 | 45 | 334 | 6.0 | 6.0 | 0.00 | 0.27 | 0.63 | 97 | 1009.6 |
| 20260506201411 | 45 | 334 | 5.0 | 5.0 | 0.00 | 0.27 | 0.63 | 97 | 1009.6 |
| 20260506201312 | 45 | 313 | 9.0 | 10.0 | 0.00 | 0.27 | 0.63 | 97 | 1009.6 |
| 20260506201212 | 45 | 322 | 3.0 | 4.0 | 0.00 | 0.27 | 0.63 | 97 | 1009.6 |
| 20260506201112 | 45 | 330 | 5.0 | 5.0 | 0.00 | 0.27 | 0.63 | 97 | 1009.6 |
| 20260506201012 | 45 | 331 | 4.0 | 5.0 | 0.00 | 0.27 | 0.63 | 97 | 1009.6 |
| 20260506200912 | 45 | 334 | 5.0 | 6.0 | 0.00 | 0.27 | 0.63 | 97 | 1009.5 |
| 20260506200812 | 45 | 335 | 6.0 | 7.0 | 0.00 | 0.27 | 0.63 | 97 | 1009.6 |
| 20260506200712 | 45 | 324 | 5.0 | 6.0 | 0.00 | 0.27 | 0.63 | 97 | 1009.5 |
| 20260506200611 | 45 | 327 | 5.0 | 5.0 | 0.00 | 0.27 | 0.63 | 97 | 1009.5 |
| 20260506200513 | 45 | 301 | 5.0 | 7.0 | 0.00 | 0.27 | 0.63 | 97 | 1009.5 |
| 20260506200412 | 45 | 315 | 9.0 | 12.0 | 0.00 | 0.27 | 0.63 | 97 | 1009.5 |
| 20260506200312 | 45 | 314 | 5.0 | 5.0 | 0.00 | 0.27 | 0.63 | 97 | 1009.5 |
| 20260506200214 | 45 | 332 | 8.0 | 8.0 | 0.00 | 0.27 | 0.63 | 97 | 1009.5 |
| 20260506200113 | 45 | 323 | 8.0 | 8.0 | 0.00 | 0.27 | 0.63 | 97 | 1009.5 |
| 20260506200012 | 45 | 326 | 4.0 | 5.0 | 0.00 | 0.27 | 0.63 | 97 | 1009.5 |
| 20260506195912 | 45 | 318 | 6.0 | 7.0 | 0.00 | 0.27 | 0.63 | 97 | 1009.5 |
| 20260506195812 | 45 | 318 | 7.0 | 7.0 | 0.00 | 0.27 | 0.63 | 97 | 1009.5 |
| 20260506195712 | 45 | 313 | 6.0 | 6.0 | 0.00 | 0.28 | 0.63 | 97 | 1009.4 |
| 20260506195612 | 45 | 337 | 3.0 | 3.0 | 0.00 | 0.28 | 0.63 | 97 | 1009.4 |
| 20260506195512 | 45 | 333 | 7.0 | 7.0 | 0.00 | 0.28 | 0.63 | 97 | 1009.4 |
| 20260506195412 | 45 | 334 | 5.0 | 5.0 | 0.00 | 0.28 | 0.63 | 97 | 1009.4 |
| 20260506195312 | 45 | 331 | 5.0 | 5.0 | 0.00 | 0.28 | 0.63 | 97 | 1009.5 |
| 20260506195212 | 45 | 313 | 7.0 | 7.0 | 0.00 | 0.28 | 0.63 | 97 | 1009.5 |
| 20260506195111 | 45 | 318 | 7.0 | 7.0 | 0.00 | 0.28 | 0.63 | 97 | 1009.5 |
| 20260506195012 | 45 | 333 | 4.0 | 5.0 | 0.00 | 0.28 | 0.63 | 97 | 1009.4 |
| 20260506194911 | 45 | 313 | 4.0 | 5.0 | 0.00 | 0.28 | 0.63 | 97 | 1009.4 |
| 20260506194811 | 45 | 321 | 4.0 | 4.0 | 0.00 | 0.28 | 0.63 | 97 | 1009.4 |
| 20260506194711 | 45 | 318 | 6.0 | 8.0 | 0.00 | 0.28 | 0.63 | 97 | 1009.4 |
| 20260506194612 | 45 | 315 | 9.0 | 9.0 | 0.00 | 0.28 | 0.63 | 97 | 1009.4 |
| 20260506194511 | 45 | 307 | 9.0 | 9.0 | 0.00 | 0.28 | 0.63 | 97 | 1009.4 |
| 20260506194411 | 45 | 303 | 4.0 | 5.0 | 0.00 | 0.28 | 0.63 | 97 | 1009.4 |
| 20260506194312 | 45 | 315 | 5.0 | 5.0 | 0.00 | 0.28 | 0.63 | 97 | 1009.4 |
| 20260506194211 | 45 | 330 | 3.0 | 3.0 | 0.00 | 0.28 | 0.63 | 97 | 1009.4 |
| 20260506194111 | 45 | 329 | 4.0 | 4.0 | 0.00 | 0.28 | 0.63 | 97 | 1009.3 |
| 20260506194012 | 45 | 318 | 7.0 | 7.0 | 0.00 | 0.28 | 0.63 | 97 | 1009.4 |
| 20260506193912 | 45 | 310 | 7.0 | 8.0 | 0.00 | 0.28 | 0.63 | 97 | 1009.4 |
| 20260506193812 | 45 | 335 | 7.0 | 9.0 | 0.00 | 0.28 | 0.63 | 97 | 1009.4 |
| 20260506193711 | 45 | 329 | 5.0 | 5.0 | 0.00 | 0.28 | 0.63 | 97 | 1009.4 |
| 20260506193612 | 45 | 314 | 8.0 | 8.0 | 0.00 | 0.28 | 0.63 | 97 | 1009.4 |
| 20260506193512 | 45 | 345 | 7.0 | 7.0 | 0.00 | 0.28 | 0.63 | 97 | 1009.4 |
| 20260506193411 | 45 | 333 | 6.0 | 7.0 | 0.00 | 0.28 | 0.63 | 97 | 1009.4 |
| 20260506193311 | 45 | 326 | 2.0 | 3.0 | 0.00 | 0.28 | 0.63 | 97 | 1009.3 |
| 20260506193211 | 45 | 326 | 5.0 | 5.0 | 0.00 | 0.28 | 0.63 | 97 | 1009.3 |
| 20260506193112 | 45 | 336 | 4.0 | 4.0 | 0.00 | 0.28 | 0.63 | 97 | 1009.3 |
| 20260506193012 | 45 | 307 | 3.0 | 4.0 | 0.00 | 0.28 | 0.63 | 97 | 1009.3 |
| 20260506192911 | 45 | 330 | 4.0 | 5.0 | 0.00 | 0.28 | 0.63 | 97 | 1009.3 |
| 20260506192813 | 45 | 324 | 8.0 | 8.0 | 0.00 | 0.28 | 0.63 | 97 | 1009.2 |
| 20260506192711 | 45 | 312 | 7.0 | 7.0 | 0.00 | 0.28 | 0.63 | 97 | 1009.2 |
| 20260506192611 | 45 | 319 | 6.0 | 8.0 | 0.00 | 0.28 | 0.63 | 97 | 1009.2 |
| 20260506192512 | 45 | 315 | 4.0 | 4.0 | 0.00 | 0.28 | 0.63 | 97 | 1009.2 |
| 20260506192412 | 45 | 314 | 5.0 | 5.0 | 0.00 | 0.28 | 0.63 | 97 | 1009.2 |
| 20260506192311 | 45 | 309 | 4.0 | 4.0 | 0.00 | 0.28 | 0.63 | 97 | 1009.1 |
| 20260506192212 | 45 | 317 | 6.0 | 6.0 | 0.00 | 0.29 | 0.63 | 97 | 1009.2 |
| 20260506192112 | 45 | 323 | 8.0 | 9.0 | 0.00 | 0.29 | 0.63 | 97 | 1009.1 |
| 20260506192011 | 45 | 329 | 6.0 | 6.0 | 0.00 | 0.29 | 0.63 | 97 | 1009.1 |
| 20260506191911 | 45 | 320 | 6.0 | 6.0 | 0.00 | 0.29 | 0.63 | 97 | 1009.1 |
| 20260506191812 | 45 | 324 | 7.0 | 7.0 | 0.00 | 0.29 | 0.63 | 97 | 1009.1 |
| 20260506191713 | 45 | 333 | 6.0 | 7.0 | 0.00 | 0.29 | 0.63 | 97 | 1009.1 |
| 20260506191611 | 45 | 315 | 4.0 | 4.0 | 0.00 | 0.29 | 0.63 | 97 | 1009.0 |
| 20260506191511 | 45 | 321 | 6.0 | 6.0 | 0.00 | 0.29 | 0.63 | 97 | 1009.1 |
| 20260506191412 | 45 | 305 | 3.0 | 3.0 | 0.00 | 0.29 | 0.63 | 97 | 1009.0 |
| 20260506191312 | 45 | 305 | 7.0 | 7.0 | 0.00 | 0.29 | 0.63 | 97 | 1009.0 |
| 20260506191211 | 45 | 307 | 5.0 | 5.0 | 0.00 | 0.29 | 0.63 | 97 | 1009.0 |
| 20260506191112 | 45 | 324 | 3.0 | 3.0 | 0.00 | 0.29 | 0.63 | 97 | 1009.0 |
| 20260506191012 | 45 | 336 | 5.0 | 6.0 | 0.00 | 0.29 | 0.63 | 97 | 1009.0 |
| 20260506190911 | 45 | 316 | 5.0 | 6.0 | 0.00 | 0.29 | 0.63 | 97 | 1009.0 |
| 20260506190811 | 45 | 304 | 7.0 | 8.0 | 0.00 | 0.30 | 0.63 | 97 | 1009.0 |
| 20260506190711 | 46 | 313 | 9.0 | 9.0 | 0.00 | 0.30 | 0.63 | 97 | 1009.0 |
| 20260506190612 | 46 | 319 | 6.0 | 7.0 | 0.00 | 0.30 | 0.63 | 97 | 1008.9 |
| 20260506190512 | 46 | 328 | 7.0 | 7.0 | 0.00 | 0.30 | 0.63 | 97 | 1009.0 |
| 20260506190412 | 46 | 330 | 9.0 | 9.0 | 0.00 | 0.30 | 0.63 | 97 | 1008.9 |
| 20260506190312 | 46 | 319 | 5.0 | 5.0 | 0.00 | 0.30 | 0.63 | 97 | 1008.9 |
| 20260506190212 | 46 | 324 | 6.0 | 6.0 | 0.00 | 0.30 | 0.63 | 97 | 1008.9 |
| 20260506190111 | 46 | 335 | 5.0 | 5.0 | 0.00 | 0.30 | 0.63 | 97 | 1008.9 |
| 20260506190011 | 46 | 312 | 4.0 | 4.0 | 0.00 | 0.30 | 0.63 | 97 | 1008.9 |
| 20260506185912 | 46 | 333 | 6.0 | 6.0 | 0.00 | 0.30 | 0.63 | 97 | 1008.9 |
| 20260506185811 | 46 | 326 | 7.0 | 7.0 | 0.00 | 0.30 | 0.63 | 97 | 1009.0 |
| 20260506185712 | 46 | 324 | 4.0 | 5.0 | 0.00 | 0.30 | 0.63 | 97 | 1008.9 |
| 20260506185611 | 46 | 329 | 6.0 | 6.0 | 0.00 | 0.30 | 0.63 | 97 | 1008.9 |
| 20260506185512 | 46 | 315 | 3.0 | 3.0 | 0.00 | 0.30 | 0.63 | 97 | 1008.9 |
| 20260506185411 | 46 | 319 | 3.0 | 3.0 | 0.00 | 0.30 | 0.63 | 97 | 1008.9 |
| 20260506185311 | 46 | 320 | 5.0 | 5.0 | 0.00 | 0.30 | 0.63 | 97 | 1008.9 |
| 20260506185212 | 46 | 325 | 4.0 | 4.0 | 0.00 | 0.30 | 0.63 | 97 | 1008.9 |
| 20260506185112 | 46 | 333 | 4.0 | 5.0 | 0.00 | 0.30 | 0.63 | 97 | 1008.9 |
| 20260506185012 | 46 | 314 | 3.0 | 3.0 | 0.00 | 0.30 | 0.63 | 97 | 1008.9 |
| 20260506184911 | 46 | 0.0 | 0.0 | 0.00 | 0.31 | 0.63 | 97 | 1008.9 | |
| 20260506184812 | 46 | 313 | 2.0 | 2.0 | 0.00 | 0.31 | 0.63 | 97 | 1008.9 |
| 20260506184711 | 46 | 316 | 5.0 | 5.0 | 0.00 | 0.31 | 0.63 | 97 | 1008.9 |
| 20260506184611 | 46 | 322 | 5.0 | 5.0 | 0.00 | 0.31 | 0.62 | 97 | 1008.9 |
| 20260506184511 | 46 | 312 | 3.0 | 3.0 | 0.00 | 0.31 | 0.62 | 97 | 1008.8 |
| 20260506184412 | 46 | 318 | 3.0 | 3.0 | 0.00 | 0.31 | 0.62 | 97 | 1008.8 |
| 20260506184312 | 46 | 319 | 3.0 | 3.0 | 0.00 | 0.31 | 0.62 | 97 | 1008.8 |
| 20260506184211 | 46 | 339 | 6.0 | 6.0 | 0.00 | 0.31 | 0.62 | 97 | 1008.8 |
| 20260506184111 | 46 | 330 | 6.0 | 7.0 | 0.00 | 0.31 | 0.62 | 97 | 1008.8 |
| 20260506184012 | 46 | 322 | 5.0 | 5.0 | 0.00 | 0.31 | 0.62 | 97 | 1008.8 |
| 20260506183911 | 46 | 341 | 4.0 | 4.0 | 0.00 | 0.31 | 0.62 | 97 | 1008.7 |
| 20260506183811 | 46 | 323 | 4.0 | 5.0 | 0.00 | 0.31 | 0.62 | 97 | 1008.7 |
| 20260506183711 | 46 | 327 | 3.0 | 3.0 | 0.00 | 0.31 | 0.62 | 97 | 1008.7 |
| 20260506183611 | 46 | 325 | 4.0 | 4.0 | 0.00 | 0.31 | 0.62 | 97 | 1008.7 |
| 20260506183511 | 46 | 321 | 6.0 | 6.0 | 0.00 | 0.31 | 0.62 | 97 | 1008.7 |
| 20260506183412 | 46 | 313 | 5.0 | 6.0 | 0.00 | 0.31 | 0.62 | 97 | 1008.6 |
| 20260506183313 | 46 | 328 | 5.0 | 5.0 | 0.00 | 0.31 | 0.62 | 97 | 1008.7 |
| 20260506183211 | 46 | 311 | 4.0 | 4.0 | 0.00 | 0.31 | 0.62 | 97 | 1008.7 |
| 20260506183112 | 46 | 323 | 2.0 | 3.0 | 0.00 | 0.31 | 0.62 | 97 | 1008.6 |
| 20260506183011 | 46 | 333 | 4.0 | 4.0 | 0.00 | 0.31 | 0.62 | 97 | 1008.6 |
| 20260506182912 | 46 | 335 | 5.0 | 5.0 | 0.00 | 0.31 | 0.62 | 97 | 1008.5 |
| 20260506182811 | 46 | 317 | 5.0 | 6.0 | 0.00 | 0.31 | 0.62 | 97 | 1008.6 |
| 20260506182712 | 46 | 324 | 3.0 | 3.0 | 0.00 | 0.31 | 0.62 | 97 | 1008.6 |
| 20260506182611 | 46 | 320 | 2.0 | 3.0 | 0.00 | 0.31 | 0.62 | 97 | 1008.6 |
| 20260506182511 | 46 | 336 | 3.0 | 3.0 | 0.00 | 0.31 | 0.62 | 97 | 1008.6 |
| 20260506182412 | 46 | 341 | 5.0 | 5.0 | 0.00 | 0.31 | 0.62 | 97 | 1008.6 |
| 20260506182311 | 46 | 332 | 6.0 | 6.0 | 0.00 | 0.31 | 0.62 | 97 | 1008.6 |
| 20260506182213 | 46 | 325 | 3.0 | 4.0 | 0.00 | 0.31 | 0.62 | 97 | 1008.6 |
| 20260506182111 | 46 | 323 | 4.0 | 4.0 | 0.00 | 0.31 | 0.62 | 97 | 1008.6 |
| 20260506182011 | 46 | 302 | 3.0 | 3.0 | 0.00 | 0.31 | 0.62 | 97 | 1008.6 |
| 20260506181911 | 46 | 334 | 4.0 | 4.0 | 0.00 | 0.31 | 0.62 | 97 | 1008.6 |
| 20260506181812 | 46 | 321 | 5.0 | 5.0 | 0.00 | 0.31 | 0.62 | 97 | 1008.5 |
| 20260506181711 | 46 | 313 | 6.0 | 6.0 | 0.00 | 0.31 | 0.62 | 97 | 1008.5 |
| 20260506181612 | 46 | 331 | 3.0 | 4.0 | 0.00 | 0.31 | 0.62 | 97 | 1008.5 |
| 20260506181512 | 46 | 327 | 3.0 | 3.0 | 0.00 | 0.31 | 0.62 | 97 | 1008.5 |
| 20260506181411 | 46 | 331 | 4.0 | 4.0 | 0.00 | 0.31 | 0.62 | 97 | 1008.5 |
| 20260506181311 | 46 | 325 | 3.0 | 3.0 | 0.00 | 0.31 | 0.62 | 97 | 1008.5 |
| 20260506181211 | 46 | 325 | 3.0 | 3.0 | 0.00 | 0.31 | 0.62 | 97 | 1008.5 |
| 20260506181112 | 46 | 298 | 5.0 | 6.0 | 0.00 | 0.31 | 0.62 | 97 | 1008.4 |
| 20260506181011 | 46 | 344 | 4.0 | 4.0 | 0.00 | 0.31 | 0.62 | 97 | 1008.4 |
| 20260506180911 | 46 | 325 | 4.0 | 5.0 | 0.00 | 0.31 | 0.62 | 97 | 1008.4 |
| 20260506180812 | 46 | 325 | 3.0 | 4.0 | 0.00 | 0.31 | 0.62 | 97 | 1008.4 |
| 20260506180712 | 46 | 324 | 4.0 | 5.0 | 0.00 | 0.31 | 0.62 | 97 | 1008.4 |
| 20260506180612 | 46 | 311 | 5.0 | 5.0 | 0.00 | 0.31 | 0.62 | 97 | 1008.4 |
| 20260506180512 | 46 | 330 | 6.0 | 6.0 | 0.00 | 0.31 | 0.62 | 97 | 1008.4 |
| 20260506180412 | 46 | 334 | 5.0 | 5.0 | 0.00 | 0.31 | 0.62 | 97 | 1008.4 |
| 20260506180311 | 46 | 337 | 4.0 | 4.0 | 0.00 | 0.31 | 0.62 | 97 | 1008.4 |
| 20260506180211 | 46 | 335 | 4.0 | 4.0 | 0.00 | 0.31 | 0.62 | 97 | 1008.4 |
| 20260506180111 | 46 | 320 | 3.0 | 3.0 | 0.00 | 0.31 | 0.62 | 97 | 1008.3 |
| 20260506180012 | 46 | 315 | 5.0 | 5.0 | 0.00 | 0.31 | 0.62 | 97 | 1008.4 |
| 20260506175911 | 46 | 320 | 5.0 | 5.0 | 0.00 | 0.31 | 0.61 | 97 | 1008.3 |
| 20260506175812 | 46 | 329 | 5.0 | 5.0 | 0.00 | 0.31 | 0.61 | 97 | 1008.3 |
| 20260506175711 | 46 | 323 | 6.0 | 7.0 | 0.00 | 0.31 | 0.61 | 97 | 1008.3 |
| 20260506175612 | 46 | 330 | 3.0 | 4.0 | 0.00 | 0.31 | 0.61 | 97 | 1008.3 |
| 20260506175511 | 46 | 327 | 6.0 | 6.0 | 0.00 | 0.31 | 0.61 | 97 | 1008.3 |
| 20260506175411 | 46 | 328 | 4.0 | 4.0 | 0.00 | 0.31 | 0.61 | 97 | 1008.3 |
| 20260506175312 | 46 | 329 | 3.0 | 3.0 | 0.00 | 0.31 | 0.61 | 97 | 1008.2 |
| 20260506175211 | 46 | 342 | 5.0 | 5.0 | 0.00 | 0.31 | 0.61 | 97 | 1008.3 |
| 20260506175112 | 46 | 315 | 3.0 | 3.0 | 0.00 | 0.31 | 0.61 | 97 | 1008.3 |
| 20260506175011 | 46 | 310 | 4.0 | 5.0 | 0.00 | 0.31 | 0.61 | 97 | 1008.2 |
| 20260506174912 | 46 | 299 | 6.0 | 6.0 | 0.00 | 0.31 | 0.61 | 97 | 1008.3 |
| 20260506174811 | 46 | 329 | 4.0 | 4.0 | 0.00 | 0.31 | 0.61 | 97 | 1008.3 |
| 20260506174711 | 46 | 333 | 4.0 | 4.0 | 0.00 | 0.31 | 0.61 | 97 | 1008.2 |
| 20260506174611 | 46 | 332 | 3.0 | 3.0 | 0.00 | 0.31 | 0.61 | 97 | 1008.3 |
| 20260506174512 | 46 | 336 | 3.0 | 4.0 | 0.00 | 0.31 | 0.61 | 97 | 1008.2 |
| 20260506174412 | 46 | 322 | 3.0 | 3.0 | 0.00 | 0.31 | 0.61 | 97 | 1008.2 |
| 20260506174311 | 46 | 344 | 4.0 | 4.0 | 0.00 | 0.31 | 0.61 | 97 | 1008.2 |
| 20260506174212 | 46 | 342 | 6.0 | 6.0 | 0.00 | 0.31 | 0.61 | 97 | 1008.2 |
| 20260506174111 | 46 | 333 | 4.0 | 4.0 | 0.00 | 0.31 | 0.61 | 97 | 1008.2 |
| 20260506174011 | 46 | 337 | 3.0 | 3.0 | 0.00 | 0.31 | 0.61 | 97 | 1008.2 |
| 20260506173857 | 46 | 326 | 3.0 | 4.0 | 0.00 | 0.32 | 0.61 | 97 | 1008.2 |
| 20260506173759 | 46 | 337 | 4.0 | 4.0 | 0.00 | 0.32 | 0.61 | 97 | 1008.2 |
| 20260506173657 | 46 | 340 | 3.0 | 3.0 | 0.00 | 0.32 | 0.61 | 97 | 1008.2 |
| 20260506173558 | 46 | 336 | 6.0 | 6.0 | 0.00 | 0.32 | 0.61 | 97 | 1008.2 |
| 20260506173457 | 46 | 331 | 6.0 | 6.0 | 0.00 | 0.32 | 0.61 | 97 | 1008.2 |
| 20260506173348 | 46 | 340 | 10.0 | 10.0 | 0.00 | 0.32 | 0.61 | 97 | 1008.2 |
| 20260506173247 | 46 | 339 | 7.0 | 7.0 | 0.00 | 0.32 | 0.61 | 97 | 1008.1 |
| 20260506173148 | 46 | 333 | 2.0 | 3.0 | 0.00 | 0.32 | 0.61 | 97 | 1008.2 |
| 20260506173048 | 46 | 327 | 3.0 | 4.0 | 0.00 | 0.32 | 0.61 | 97 | 1008.1 |
| 20260506172947 | 46 | 315 | 5.0 | 5.0 | 0.00 | 0.32 | 0.61 | 97 | 1008.2 |
| 20260506172847 | 46 | 333 | 5.0 | 5.0 | 0.00 | 0.32 | 0.61 | 97 | 1008.1 |
| 20260506172751 | 46 | 331 | 6.0 | 6.0 | 0.00 | 0.32 | 0.61 | 97 | 1008.1 |
| 20260506172638 | 46 | 345 | 6.0 | 6.0 | 0.00 | 0.32 | 0.61 | 97 | 1008.1 |
| 20260506172538 | 46 | 325 | 4.0 | 5.0 | 0.00 | 0.32 | 0.61 | 97 | 1008.1 |
| 20260506172437 | 46 | 330 | 5.0 | 5.0 | 0.00 | 0.32 | 0.61 | 97 | 1008.1 |
| 20260506172337 | 46 | 327 | 4.0 | 4.0 | 0.00 | 0.32 | 0.61 | 97 | 1008.1 |
| 20260506172238 | 46 | 327 | 3.0 | 3.0 | 0.00 | 0.32 | 0.61 | 97 | 1008.0 |
| 20260506172137 | 46 | 329 | 2.0 | 3.0 | 0.00 | 0.32 | 0.61 | 97 | 1008.1 |
| 20260506172027 | 46 | 343 | 4.0 | 4.0 | 0.00 | 0.32 | 0.61 | 97 | 1008.0 |
| 20260506171928 | 46 | 331 | 3.0 | 5.0 | 0.00 | 0.32 | 0.61 | 97 | 1008.0 |
| 20260506171827 | 46 | 321 | 4.0 | 4.0 | 0.00 | 0.32 | 0.61 | 97 | 1008.0 |
| 20260506171727 | 46 | 321 | 4.0 | 5.0 | 0.00 | 0.32 | 0.61 | 97 | 1008.0 |
| 20260506171627 | 46 | 311 | 4.0 | 4.0 | 0.00 | 0.32 | 0.61 | 97 | 1008.0 |
| 20260506171528 | 46 | 321 | 7.0 | 7.0 | 0.00 | 0.32 | 0.61 | 97 | 1008.0 |
| 20260506171427 | 46 | 334 | 4.0 | 4.0 | 0.00 | 0.32 | 0.61 | 97 | 1008.0 |
| 20260506171317 | 46 | 325 | 4.0 | 4.0 | 0.00 | 0.32 | 0.61 | 97 | 1008.0 |
| 20260506171217 | 46 | 319 | 3.0 | 3.0 | 0.00 | 0.32 | 0.61 | 97 | 1008.0 |
| 20260506171118 | 46 | 317 | 3.0 | 3.0 | 0.00 | 0.32 | 0.61 | 97 | 1008.0 |
| 20260506171017 | 46 | 317 | 4.0 | 5.0 | 0.00 | 0.32 | 0.61 | 97 | 1008.0 |
| 20260506170917 | 46 | 320 | 5.0 | 5.0 | 0.00 | 0.32 | 0.61 | 97 | 1007.9 |
| 20260506170817 | 46 | 320 | 2.0 | 3.0 | 0.00 | 0.32 | 0.61 | 97 | 1008.0 |
| 20260506170723 | 46 | 319 | 3.0 | 5.0 | 0.00 | 0.32 | 0.61 | 97 | 1008.0 |
| 20260506170608 | 46 | 317 | 4.0 | 4.0 | 0.00 | 0.32 | 0.61 | 97 | 1007.9 |
| 20260506170508 | 46 | 310 | 3.0 | 4.0 | 0.00 | 0.32 | 0.61 | 97 | 1008.0 |
| 20260506170408 | 46 | 309 | 2.0 | 2.0 | 0.00 | 0.32 | 0.61 | 97 | 1008.0 |
| 20260506170307 | 46 | 304 | 5.0 | 5.0 | 0.00 | 0.32 | 0.61 | 97 | 1008.0 |
| 20260506170207 | 46 | 323 | 2.0 | 2.0 | 0.00 | 0.32 | 0.61 | 97 | 1007.9 |
| 20260506170107 | 46 | 322 | 3.0 | 3.0 | 0.00 | 0.32 | 0.61 | 97 | 1007.9 |
| 20260506165958 | 46 | 321 | 3.0 | 4.0 | 0.00 | 0.32 | 0.61 | 97 | 1007.9 |
| 20260506165857 | 46 | 331 | 1.0 | 2.0 | 0.00 | 0.32 | 0.61 | 97 | 1008.0 |
| 20260506165757 | 46 | 327 | 4.0 | 4.0 | 0.00 | 0.32 | 0.61 | 97 | 1007.9 |
| 20260506165657 | 46 | 315 | 5.0 | 6.0 | 0.00 | 0.32 | 0.61 | 97 | 1007.9 |
| 20260506165557 | 46 | 328 | 2.0 | 3.0 | 0.00 | 0.32 | 0.61 | 97 | 1007.9 |
| 20260506165447 | 46 | 331 | 2.0 | 3.0 | 0.00 | 0.32 | 0.61 | 97 | 1007.9 |
| 20260506165347 | 46 | 332 | 2.0 | 3.0 | 0.00 | 0.32 | 0.61 | 97 | 1007.9 |
| 20260506165248 | 46 | 332 | 4.0 | 4.0 | 0.00 | 0.32 | 0.61 | 97 | 1007.9 |
| 20260506165147 | 46 | 335 | 2.0 | 2.0 | 0.00 | 0.32 | 0.61 | 97 | 1007.9 |
| 20260506165047 | 46 | 321 | 4.0 | 5.0 | 0.00 | 0.32 | 0.61 | 97 | 1008.0 |
| 20260506164947 | 46 | 317 | 2.0 | 2.0 | 0.00 | 0.32 | 0.61 | 97 | 1007.9 |
| 20260506164848 | 46 | 331 | 2.0 | 4.0 | 0.00 | 0.32 | 0.61 | 97 | 1007.9 |
| 20260506164748 | 46 | 328 | 3.0 | 3.0 | 0.00 | 0.32 | 0.61 | 97 | 1007.9 |
| 20260506164651 | 46 | 327 | 5.0 | 5.0 | 0.00 | 0.32 | 0.61 | 97 | 1007.9 |
| 20260506164537 | 46 | 329 | 3.0 | 3.0 | 0.00 | 0.32 | 0.61 | 97 | 1007.9 |
| 20260506164437 | 46 | 329 | 3.0 | 3.0 | 0.00 | 0.32 | 0.61 | 97 | 1007.9 |
| 20260506164338 | 46 | 329 | 2.0 | 2.0 | 0.00 | 0.32 | 0.61 | 97 | 1007.9 |
| 20260506164237 | 46 | 323 | 3.0 | 3.0 | 0.00 | 0.32 | 0.61 | 97 | 1007.9 |
| 20260506164138 | 46 | 325 | 2.0 | 2.0 | 0.00 | 0.32 | 0.61 | 97 | 1007.8 |
| 20260506164037 | 46 | 316 | 4.0 | 4.0 | 0.00 | 0.32 | 0.61 | 97 | 1007.8 |
| 20260506163927 | 46 | 319 | 4.0 | 5.0 | 0.00 | 0.32 | 0.61 | 97 | 1007.9 |
| 20260506163827 | 46 | 310 | 2.0 | 2.0 | 0.00 | 0.32 | 0.61 | 97 | 1007.8 |
| 20260506163728 | 46 | 329 | 1.0 | 1.0 | 0.00 | 0.32 | 0.61 | 97 | 1007.9 |
| 20260506163627 | 46 | 329 | 2.0 | 3.0 | 0.00 | 0.32 | 0.61 | 97 | 1007.9 |
| 20260506163527 | 46 | 325 | 4.0 | 4.0 | 0.00 | 0.32 | 0.61 | 97 | 1007.9 |
| 20260506163428 | 46 | 311 | 4.0 | 4.0 | 0.00 | 0.32 | 0.61 | 97 | 1007.8 |
| 20260506163327 | 46 | 326 | 4.0 | 4.0 | 0.00 | 0.32 | 0.61 | 97 | 1007.9 |
| 20260506163217 | 46 | 313 | 1.0 | 1.0 | 0.00 | 0.32 | 0.61 | 97 | 1007.8 |
| 20260506163117 | 46 | 294 | 5.0 | 5.0 | 0.00 | 0.32 | 0.61 | 97 | 1007.8 |
| 20260506163018 | 46 | 326 | 5.0 | 5.0 | 0.00 | 0.32 | 0.61 | 97 | 1007.8 |
| 20260506162917 | 46 | 319 | 3.0 | 3.0 | 0.00 | 0.32 | 0.61 | 97 | 1007.9 |
| 20260506162817 | 46 | 313 | 3.0 | 4.0 | 0.00 | 0.32 | 0.61 | 97 | 1007.8 |
| 20260506162717 | 46 | 317 | 4.0 | 4.0 | 0.00 | 0.32 | 0.61 | 97 | 1007.8 |
| 20260506162622 | 46 | 319 | 2.0 | 3.0 | 0.00 | 0.32 | 0.61 | 97 | 1007.8 |
| 20260506162507 | 46 | 315 | 4.0 | 4.0 | 0.00 | 0.32 | 0.61 | 97 | 1007.8 |
| 20260506162407 | 46 | 313 | 2.0 | 3.0 | 0.00 | 0.32 | 0.61 | 97 | 1007.8 |
| 20260506162307 | 46 | 303 | 4.0 | 4.0 | 0.00 | 0.32 | 0.61 | 97 | 1007.9 |
| 20260506162207 | 46 | 298 | 2.0 | 3.0 | 0.00 | 0.32 | 0.61 | 97 | 1007.9 |
| 20260506162107 | 46 | 340 | 2.0 | 2.0 | 0.00 | 0.32 | 0.61 | 97 | 1007.8 |
| 20260506162007 | 46 | 340 | 4.0 | 4.0 | 0.00 | 0.32 | 0.61 | 97 | 1007.8 |
| 20260506161858 | 46 | 316 | 5.0 | 6.0 | 0.00 | 0.32 | 0.61 | 97 | 1007.9 |
| 20260506161757 | 46 | 317 | 4.0 | 4.0 | 0.00 | 0.32 | 0.61 | 97 | 1007.7 |
| 20260506161657 | 46 | 333 | 3.0 | 3.0 | 0.00 | 0.32 | 0.61 | 97 | 1007.8 |
| 20260506161557 | 46 | 331 | 4.0 | 4.0 | 0.00 | 0.32 | 0.61 | 97 | 1007.8 |
| 20260506161458 | 46 | 330 | 3.0 | 4.0 | 0.00 | 0.32 | 0.61 | 97 | 1007.8 |
| 20260506161357 | 46 | 334 | 4.0 | 4.0 | 0.00 | 0.32 | 0.61 | 97 | 1007.8 |
| 20260506161257 | 46 | 314 | 3.0 | 3.0 | 0.00 | 0.32 | 0.61 | 97 | 1007.8 |
| 20260506161147 | 46 | 316 | 3.0 | 3.0 | 0.00 | 0.32 | 0.61 | 97 | 1007.8 |
| 20260506161047 | 46 | 331 | 2.0 | 2.0 | 0.00 | 0.32 | 0.61 | 97 | 1007.8 |
| 20260506160947 | 46 | 331 | 3.0 | 4.0 | 0.00 | 0.32 | 0.61 | 97 | 1007.8 |
| 20260506160847 | 46 | 329 | 3.0 | 3.0 | 0.00 | 0.32 | 0.61 | 97 | 1007.8 |
| 20260506160748 | 46 | 319 | 3.0 | 4.0 | 0.00 | 0.32 | 0.61 | 97 | 1007.8 |
| 20260506160647 | 46 | 327 | 4.0 | 4.0 | 0.00 | 0.32 | 0.61 | 97 | 1007.8 |
| 20260506160551 | 46 | 306 | 5.0 | 6.0 | 0.00 | 0.32 | 0.61 | 97 | 1007.8 |
| 20260506160437 | 46 | 322 | 5.0 | 5.0 | 0.00 | 0.32 | 0.61 | 97 | 1007.8 |
| 20260506160338 | 46 | 317 | 3.0 | 3.0 | 0.00 | 0.32 | 0.61 | 97 | 1007.8 |
| 20260506160237 | 46 | 338 | 3.0 | 3.0 | 0.00 | 0.32 | 0.61 | 97 | 1007.8 |
| 20260506160137 | 46 | 342 | 1.0 | 2.0 | 0.00 | 0.32 | 0.61 | 97 | 1007.8 |
| 20260506160038 | 46 | 0.0 | 2.0 | 0.00 | 0.32 | 0.61 | 97 | 1007.7 | |
| 20260506155937 | 46 | 0.0 | 0.0 | 0.00 | 0.32 | 0.61 | 97 | 1007.7 | |
| 20260506155827 | 46 | 229 | 1.0 | 2.0 | 0.00 | 0.32 | 0.61 | 97 | 1007.8 |
| 20260506155727 | 46 | 323 | 5.0 | 5.0 | 0.00 | 0.32 | 0.61 | 97 | 1007.8 |
| 20260506155628 | 46 | 305 | 4.0 | 4.0 | 0.00 | 0.32 | 0.61 | 97 | 1007.8 |
| 20260506155527 | 46 | 331 | 1.0 | 2.0 | 0.00 | 0.32 | 0.61 | 97 | 1007.8 |
| 20260506155427 | 46 | 0.0 | 0.0 | 0.00 | 0.32 | 0.61 | 97 | 1007.7 | |
| 20260506155327 | 46 | 308 | 1.0 | 2.0 | 0.00 | 0.32 | 0.61 | 97 | 1007.8 |
| 20260506155228 | 46 | 306 | 2.0 | 3.0 | 0.00 | 0.32 | 0.61 | 97 | 1007.7 |
| 20260506155127 | 46 | 333 | 5.0 | 5.0 | 0.00 | 0.32 | 0.61 | 97 | 1007.7 |
| 20260506155027 | 46 | 312 | 3.0 | 3.0 | 0.00 | 0.32 | 0.61 | 97 | 1007.7 |
| 20260506154927 | 46 | 313 | 4.0 | 4.0 | 0.00 | 0.32 | 0.61 | 97 | 1007.7 |
| 20260506154827 | 46 | 311 | 4.0 | 4.0 | 0.00 | 0.32 | 0.61 | 97 | 1007.7 |
| 20260506154727 | 46 | 299 | 2.0 | 2.0 | 0.00 | 0.32 | 0.61 | 97 | 1007.7 |
| 20260506154627 | 46 | 310 | 2.0 | 2.0 | 0.00 | 0.32 | 0.61 | 97 | 1007.7 |
| 20260506154528 | 46 | 319 | 3.0 | 3.0 | 0.00 | 0.32 | 0.61 | 97 | 1007.7 |
| 20260506154428 | 46 | 311 | 6.0 | 6.0 | 0.00 | 0.32 | 0.61 | 97 | 1007.7 |
| 20260506154327 | 46 | 312 | 5.0 | 5.0 | 0.00 | 0.32 | 0.61 | 97 | 1007.7 |
| 20260506154227 | 46 | 299 | 4.0 | 4.0 | 0.00 | 0.32 | 0.61 | 97 | 1007.7 |
| 20260506154128 | 46 | 320 | 3.0 | 3.0 | 0.00 | 0.32 | 0.61 | 97 | 1007.7 |
| 20260506154027 | 46 | 315 | 4.0 | 4.0 | 0.00 | 0.32 | 0.61 | 97 | 1007.7 |
| 20260506153927 | 46 | 331 | 5.0 | 5.0 | 0.00 | 0.32 | 0.61 | 97 | 1007.7 |
| 20260506153831 | 46 | 324 | 4.0 | 4.0 | 0.00 | 0.32 | 0.61 | 97 | 1007.8 |
| 20260506153717 | 46 | 318 | 4.0 | 4.0 | 0.00 | 0.32 | 0.61 | 97 | 1007.8 |
| 20260506153617 | 46 | 316 | 3.0 | 3.0 | 0.00 | 0.32 | 0.61 | 97 | 1007.8 |
| 20260506153517 | 46 | 315 | 5.0 | 5.0 | 0.00 | 0.32 | 0.61 | 97 | 1007.9 |
| 20260506153418 | 46 | 323 | 3.0 | 3.0 | 0.00 | 0.32 | 0.61 | 97 | 1007.8 |
| 20260506153322 | 46 | 332 | 6.0 | 8.0 | 0.00 | 0.32 | 0.61 | 97 | 1007.9 |
| 20260506153207 | 46 | 335 | 3.0 | 3.0 | 0.00 | 0.32 | 0.61 | 97 | 1007.8 |
| 20260506153107 | 46 | 314 | 3.0 | 3.0 | 0.00 | 0.32 | 0.61 | 97 | 1007.8 |
| 20260506153007 | 46 | 323 | 3.0 | 3.0 | 0.00 | 0.32 | 0.61 | 97 | 1007.8 |
| 20260506152907 | 46 | 330 | 4.0 | 5.0 | 0.00 | 0.32 | 0.61 | 97 | 1007.8 |
| 20260506152807 | 46 | 334 | 3.0 | 4.0 | 0.00 | 0.32 | 0.61 | 97 | 1007.8 |
| 20260506152707 | 46 | 304 | 4.0 | 4.0 | 0.00 | 0.32 | 0.61 | 97 | 1007.8 |
| 20260506152607 | 46 | 312 | 4.0 | 4.0 | 0.00 | 0.32 | 0.61 | 97 | 1007.8 |
| 20260506152507 | 46 | 323 | 3.0 | 3.0 | 0.00 | 0.32 | 0.61 | 97 | 1007.8 |
| 20260506152407 | 46 | 317 | 3.0 | 4.0 | 0.00 | 0.32 | 0.61 | 97 | 1007.8 |
| 20260506152308 | 46 | 314 | 1.0 | 2.0 | 0.00 | 0.32 | 0.61 | 97 | 1007.8 |
| 20260506152207 | 46 | 327 | 6.0 | 7.0 | 0.00 | 0.32 | 0.61 | 97 | 1007.7 |
| 20260506152107 | 46 | 321 | 2.0 | 3.0 | 0.00 | 0.32 | 0.61 | 97 | 1007.8 |
| 20260506152007 | 46 | 309 | 3.0 | 4.0 | 0.00 | 0.32 | 0.61 | 97 | 1007.7 |
| 20260506151908 | 46 | 355 | 3.0 | 4.0 | 0.00 | 0.32 | 0.61 | 97 | 1007.8 |
| 20260506151807 | 46 | 304 | 2.0 | 2.0 | 0.00 | 0.32 | 0.61 | 97 | 1007.8 |
| 20260506151707 | 46 | 314 | 6.0 | 6.0 | 0.00 | 0.32 | 0.61 | 97 | 1007.7 |
| 20260506151607 | 46 | 314 | 4.0 | 4.0 | 0.00 | 0.32 | 0.61 | 97 | 1007.8 |
| 20260506151507 | 46 | 326 | 4.0 | 4.0 | 0.00 | 0.32 | 0.61 | 97 | 1007.7 |
| 20260506151407 | 46 | 306 | 3.0 | 3.0 | 0.00 | 0.32 | 0.61 | 97 | 1007.7 |
| 20260506151307 | 46 | 297 | 3.0 | 3.0 | 0.00 | 0.32 | 0.61 | 97 | 1007.8 |
| 20260506151208 | 46 | 302 | 2.0 | 2.0 | 0.00 | 0.32 | 0.61 | 97 | 1007.7 |
| 20260506151107 | 46 | 316 | 4.0 | 4.0 | 0.00 | 0.32 | 0.61 | 97 | 1007.7 |
| 20260506151008 | 46 | 317 | 3.0 | 3.0 | 0.00 | 0.32 | 0.61 | 97 | 1007.7 |
| 20260506150907 | 46 | 325 | 3.0 | 3.0 | 0.00 | 0.32 | 0.61 | 97 | 1007.7 |
| 20260506150808 | 46 | 329 | 3.0 | 3.0 | 0.00 | 0.32 | 0.61 | 97 | 1007.7 |
| 20260506150708 | 46 | 325 | 5.0 | 6.0 | 0.00 | 0.32 | 0.61 | 97 | 1007.7 |
| 20260506150607 | 46 | 303 | 2.0 | 2.0 | 0.00 | 0.32 | 0.61 | 97 | 1007.7 |
| 20260506150507 | 46 | 327 | 4.0 | 4.0 | 0.00 | 0.32 | 0.61 | 97 | 1007.7 |
| 20260506150407 | 46 | 304 | 6.0 | 7.0 | 0.00 | 0.32 | 0.61 | 97 | 1007.7 |
| 20260506150307 | 46 | 0.0 | 0.0 | 0.00 | 0.32 | 0.61 | 97 | 1007.8 | |
| 20260506150207 | 46 | 306 | 1.0 | 1.0 | 0.00 | 0.32 | 0.61 | 97 | 1007.7 |
| 20260506150108 | 46 | 0.0 | 0.0 | 0.00 | 0.32 | 0.61 | 97 | 1007.7 | |
| 20260506150007 | 46 | 0.0 | 0.0 | 0.00 | 0.32 | 0.61 | 97 | 1007.7 | |
| 20260506145907 | 46 | 324 | 5.0 | 5.0 | 0.00 | 0.32 | 0.61 | 97 | 1007.7 |
| 20260506145807 | 46 | 307 | 4.0 | 5.0 | 0.00 | 0.32 | 0.61 | 97 | 1007.7 |
| 20260506145707 | 46 | 320 | 5.0 | 5.0 | 0.00 | 0.32 | 0.61 | 97 | 1007.7 |
| 20260506145607 | 46 | 321 | 1.0 | 1.0 | 0.00 | 0.32 | 0.61 | 97 | 1007.7 |
| 20260506145507 | 46 | 298 | 1.0 | 1.0 | 0.00 | 0.32 | 0.61 | 97 | 1007.7 |
| 20260506145407 | 46 | 338 | 4.0 | 4.0 | 0.00 | 0.32 | 0.61 | 97 | 1007.7 |
| 20260506145307 | 46 | 320 | 3.0 | 3.0 | 0.00 | 0.32 | 0.61 | 97 | 1007.7 |
| 20260506145207 | 46 | 326 | 4.0 | 6.0 | 0.00 | 0.32 | 0.61 | 97 | 1007.7 |
| 20260506145107 | 46 | 310 | 4.0 | 4.0 | 0.00 | 0.32 | 0.61 | 97 | 1007.7 |
| 20260506145008 | 46 | 308 | 6.0 | 7.0 | 0.00 | 0.32 | 0.61 | 97 | 1007.7 |
| 20260506144907 | 46 | 320 | 1.0 | 1.0 | 0.00 | 0.32 | 0.61 | 97 | 1007.7 |
| 20260506144807 | 46 | 321 | 6.0 | 6.0 | 0.00 | 0.32 | 0.61 | 97 | 1007.7 |
| 20260506144707 | 46 | 315 | 3.0 | 3.0 | 0.00 | 0.32 | 0.61 | 97 | 1007.7 |
| 20260506144608 | 46 | 323 | 1.0 | 1.0 | 0.00 | 0.32 | 0.61 | 97 | 1007.7 |
| 20260506144507 | 46 | 314 | 5.0 | 5.0 | 0.00 | 0.32 | 0.61 | 97 | 1007.6 |
| 20260506144407 | 46 | 306 | 2.0 | 2.0 | 0.00 | 0.32 | 0.61 | 97 | 1007.6 |
| 20260506144307 | 46 | 267 | 3.0 | 3.0 | 0.00 | 0.32 | 0.61 | 97 | 1007.6 |
| 20260506144207 | 46 | 313 | 2.0 | 3.0 | 0.00 | 0.32 | 0.61 | 97 | 1007.6 |
| 20260506144107 | 46 | 313 | 3.0 | 3.0 | 0.00 | 0.32 | 0.61 | 97 | 1007.6 |
| 20260506144007 | 46 | 0.0 | 1.0 | 0.00 | 0.32 | 0.61 | 97 | 1007.6 | |
| 20260506143908 | 46 | 307 | 3.0 | 3.0 | 0.00 | 0.32 | 0.61 | 97 | 1007.6 |
| 20260506143807 | 46 | 314 | 2.0 | 2.0 | 0.00 | 0.32 | 0.61 | 97 | 1007.6 |
| 20260506143707 | 46 | 320 | 2.0 | 2.0 | 0.00 | 0.32 | 0.61 | 97 | 1007.5 |
| 20260506143607 | 46 | 322 | 6.0 | 6.0 | 0.00 | 0.32 | 0.61 | 97 | 1007.6 |
| 20260506143507 | 46 | 306 | 4.0 | 5.0 | 0.00 | 0.32 | 0.61 | 97 | 1007.5 |
| 20260506143407 | 46 | 309 | 3.0 | 3.0 | 0.00 | 0.32 | 0.61 | 97 | 1007.5 |
| 20260506143307 | 46 | 331 | 3.0 | 4.0 | 0.00 | 0.32 | 0.61 | 97 | 1007.5 |
| 20260506143207 | 46 | 319 | 3.0 | 3.0 | 0.00 | 0.32 | 0.61 | 97 | 1007.5 |
| 20260506143107 | 46 | 307 | 5.0 | 6.0 | 0.00 | 0.32 | 0.61 | 97 | 1007.5 |
| 20260506143007 | 46 | 317 | 4.0 | 4.0 | 0.00 | 0.32 | 0.61 | 97 | 1007.5 |
| 20260506142907 | 46 | 325 | 2.0 | 2.0 | 0.00 | 0.32 | 0.61 | 97 | 1007.5 |
| 20260506142808 | 46 | 333 | 6.0 | 6.0 | 0.00 | 0.32 | 0.61 | 97 | 1007.4 |
| 20260506142707 | 46 | 321 | 5.0 | 6.0 | 0.00 | 0.32 | 0.61 | 97 | 1007.4 |
| 20260506142607 | 46 | 343 | 5.0 | 5.0 | 0.00 | 0.32 | 0.61 | 97 | 1007.5 |
| 20260506142507 | 46 | 314 | 2.0 | 3.0 | 0.00 | 0.32 | 0.61 | 97 | 1007.4 |
| 20260506142407 | 46 | 315 | 3.0 | 3.0 | 0.00 | 0.32 | 0.61 | 97 | 1007.5 |
| 20260506142307 | 46 | 312 | 1.0 | 1.0 | 0.00 | 0.32 | 0.61 | 97 | 1007.4 |
| 20260506142207 | 46 | 0.0 | 0.0 | 0.00 | 0.32 | 0.61 | 97 | 1007.5 | |
| 20260506142107 | 46 | 309 | 4.0 | 4.0 | 0.00 | 0.32 | 0.61 | 97 | 1007.5 |
| 20260506142007 | 46 | 332 | 4.0 | 4.0 | 0.00 | 0.32 | 0.61 | 97 | 1007.5 |
| 20260506141907 | 46 | 339 | 2.0 | 2.0 | 0.00 | 0.32 | 0.61 | 97 | 1007.5 |
| 20260506141807 | 46 | 309 | 2.0 | 2.0 | 0.00 | 0.32 | 0.61 | 97 | 1007.5 |
| 20260506141707 | 46 | 316 | 3.0 | 3.0 | 0.00 | 0.32 | 0.61 | 97 | 1007.5 |
| 20260506141607 | 46 | 316 | 4.0 | 5.0 | 0.00 | 0.32 | 0.61 | 97 | 1007.5 |
| 20260506141507 | 46 | 284 | 3.0 | 3.0 | 0.00 | 0.32 | 0.61 | 97 | 1007.5 |
| 20260506141407 | 46 | 310 | 3.0 | 4.0 | 0.00 | 0.32 | 0.61 | 97 | 1007.5 |
| 20260506141307 | 46 | 324 | 4.0 | 4.0 | 0.00 | 0.32 | 0.61 | 97 | 1007.5 |
| 20260506141207 | 46 | 323 | 1.0 | 2.0 | 0.00 | 0.32 | 0.61 | 97 | 1007.5 |
| 20260506141107 | 46 | 329 | 2.0 | 3.0 | 0.00 | 0.32 | 0.61 | 97 | 1007.5 |
| 20260506141008 | 46 | 312 | 5.0 | 6.0 | 0.00 | 0.32 | 0.61 | 97 | 1007.5 |
| 20260506140907 | 46 | 313 | 3.0 | 3.0 | 0.00 | 0.32 | 0.61 | 97 | 1007.4 |
| 20260506140807 | 46 | 315 | 3.0 | 3.0 | 0.00 | 0.32 | 0.61 | 97 | 1007.5 |
| 20260506140707 | 46 | 314 | 4.0 | 4.0 | 0.00 | 0.32 | 0.61 | 97 | 1007.5 |
| 20260506140607 | 46 | 305 | 5.0 | 5.0 | 0.00 | 0.32 | 0.61 | 97 | 1007.4 |
| 20260506140507 | 46 | 310 | 2.0 | 3.0 | 0.00 | 0.32 | 0.61 | 97 | 1007.5 |
| 20260506140407 | 46 | 320 | 2.0 | 3.0 | 0.00 | 0.32 | 0.61 | 97 | 1007.5 |
| 20260506140307 | 46 | 306 | 3.0 | 3.0 | 0.00 | 0.32 | 0.61 | 97 | 1007.4 |
| 20260506140207 | 46 | 319 | 2.0 | 2.0 | 0.00 | 0.32 | 0.61 | 97 | 1007.5 |
| 20260506140107 | 47 | 329 | 8.0 | 8.0 | 0.00 | 0.32 | 0.61 | 97 | 1007.4 |
| 20260506140007 | 47 | 311 | 2.0 | 3.0 | 0.00 | 0.32 | 0.61 | 97 | 1007.5 |
| 20260506135907 | 47 | 330 | 5.0 | 5.0 | 0.00 | 0.32 | 0.61 | 97 | 1007.5 |
| 20260506135807 | 47 | 267 | 2.0 | 2.0 | 0.00 | 0.32 | 0.61 | 97 | 1007.5 |
| 20260506135707 | 47 | 315 | 1.0 | 1.0 | 0.00 | 0.32 | 0.61 | 97 | 1007.4 |
| 20260506135607 | 47 | 0.0 | 0.0 | 0.00 | 0.32 | 0.61 | 97 | 1007.4 | |
| 20260506135508 | 47 | 0.0 | 0.0 | 0.00 | 0.32 | 0.61 | 97 | 1007.4 | |
| 20260506135407 | 47 | 0.0 | 0.0 | 0.00 | 0.32 | 0.61 | 97 | 1007.4 | |
| 20260506135307 | 47 | 318 | 4.0 | 5.0 | 0.00 | 0.32 | 0.61 | 97 | 1007.4 |
| 20260506135207 | 47 | 315 | 4.0 | 5.0 | 0.00 | 0.32 | 0.61 | 97 | 1007.4 |
| 20260506135107 | 47 | 0.0 | 0.0 | 0.00 | 0.32 | 0.61 | 97 | 1007.4 | |
| 20260506135007 | 47 | 0.0 | 0.0 | 0.00 | 0.32 | 0.61 | 97 | 1007.4 | |
| 20260506134907 | 47 | 0.0 | 1.0 | 0.00 | 0.32 | 0.61 | 97 | 1007.4 | |
| 20260506134807 | 47 | 320 | 2.0 | 3.0 | 0.00 | 0.32 | 0.61 | 97 | 1007.4 |
| 20260506134707 | 47 | 0.0 | 0.0 | 0.00 | 0.32 | 0.61 | 97 | 1007.4 | |
| 20260506134607 | 47 | 0.0 | 1.0 | 0.00 | 0.32 | 0.61 | 97 | 1007.4 | |
| 20260506134507 | 47 | 0.0 | 0.0 | 0.00 | 0.32 | 0.61 | 97 | 1007.3 | |
| 20260506134407 | 47 | 0.0 | 2.0 | 0.00 | 0.32 | 0.61 | 97 | 1007.4 | |
| 20260506134307 | 47 | 313 | 3.0 | 3.0 | 0.00 | 0.32 | 0.61 | 97 | 1007.4 |
| 20260506134207 | 47 | 315 | 3.0 | 4.0 | 0.00 | 0.32 | 0.61 | 97 | 1007.4 |
| 20260506134107 | 47 | 329 | 3.0 | 3.0 | 0.00 | 0.32 | 0.61 | 97 | 1007.3 |
| 20260506134007 | 47 | 317 | 2.0 | 2.0 | 0.00 | 0.32 | 0.61 | 97 | 1007.4 |
| 20260506133907 | 47 | 317 | 2.0 | 3.0 | 0.00 | 0.32 | 0.61 | 97 | 1007.3 |
| 20260506133807 | 47 | 316 | 3.0 | 3.0 | 0.00 | 0.32 | 0.61 | 97 | 1007.4 |
| 20260506133707 | 47 | 0.0 | 0.0 | 0.00 | 0.32 | 0.60 | 97 | 1007.4 | |
| 20260506133607 | 47 | 317 | 2.0 | 2.0 | 0.00 | 0.32 | 0.60 | 97 | 1007.3 |
| 20260506133507 | 47 | 319 | 3.0 | 3.0 | 0.00 | 0.32 | 0.60 | 97 | 1007.3 |
| 20260506133407 | 47 | 314 | 1.0 | 2.0 | 0.00 | 0.32 | 0.60 | 97 | 1007.3 |
| 20260506133308 | 47 | 0.0 | 0.0 | 0.00 | 0.32 | 0.60 | 97 | 1007.3 | |
| 20260506133207 | 47 | 313 | 2.0 | 2.0 | 0.00 | 0.32 | 0.60 | 97 | 1007.3 |
| 20260506133107 | 47 | 0.0 | 0.0 | 0.00 | 0.32 | 0.60 | 97 | 1007.3 | |
| 20260506133007 | 47 | 0.0 | 0.0 | 0.00 | 0.33 | 0.60 | 97 | 1007.3 | |
| 20260506132908 | 47 | 0.0 | 0.0 | 0.00 | 0.33 | 0.60 | 97 | 1007.3 | |
| 20260506132807 | 47 | 0.0 | 0.0 | 0.00 | 0.33 | 0.60 | 97 | 1007.3 | |
| 20260506132707 | 47 | 315 | 2.0 | 3.0 | 0.00 | 0.33 | 0.60 | 97 | 1007.3 |
| 20260506132607 | 47 | 314 | 1.0 | 1.0 | 0.00 | 0.35 | 0.60 | 97 | 1007.3 |
| 20260506132507 | 47 | 313 | 3.0 | 3.0 | 0.00 | 0.39 | 0.60 | 97 | 1007.3 |
| 20260506132407 | 47 | 0.0 | 0.0 | 0.00 | 0.42 | 0.60 | 97 | 1007.3 | |
| 20260506132307 | 47 | 0.0 | 0.0 | 0.00 | 0.42 | 0.60 | 97 | 1007.3 | |
| 20260506132208 | 47 | 306 | 4.0 | 4.0 | 0.00 | 0.42 | 0.60 | 97 | 1007.3 |
| 20260506132107 | 47 | 0.0 | 0.0 | 0.00 | 0.42 | 0.60 | 97 | 1007.3 | |
| 20260506132007 | 47 | 315 | 1.0 | 3.0 | 0.00 | 0.42 | 0.60 | 97 | 1007.4 |
| 20260506131907 | 47 | 313 | 1.0 | 1.0 | 0.00 | 0.42 | 0.60 | 97 | 1007.4 |
| 20260506131807 | 47 | 0.0 | 1.0 | 0.00 | 0.42 | 0.60 | 97 | 1007.3 | |
| 20260506131707 | 47 | 0.0 | 0.0 | 0.00 | 0.42 | 0.60 | 97 | 1007.3 | |
| 20260506131607 | 47 | 313 | 2.0 | 3.0 | 0.00 | 0.42 | 0.60 | 97 | 1007.3 |
| 20260506131507 | 47 | 315 | 4.0 | 4.0 | 0.00 | 0.42 | 0.60 | 97 | 1007.3 |
| 20260506131406 | 46 | 0.0 | 0.0 | 0.00 | 0.42 | 0.60 | 97 | 1007.3 | |
| 20260506131307 | 46 | 315 | 2.0 | 2.0 | 0.00 | 0.42 | 0.60 | 97 | 1007.3 |
| 20260506131207 | 46 | 315 | 1.0 | 1.0 | 0.00 | 0.42 | 0.60 | 97 | 1007.3 |
| 20260506131108 | 46 | 316 | 1.0 | 1.0 | 0.00 | 0.42 | 0.60 | 97 | 1007.3 |
| 20260506131007 | 46 | 317 | 2.0 | 2.0 | 0.00 | 0.42 | 0.60 | 97 | 1007.3 |
| 20260506130907 | 46 | 0.0 | 0.0 | 0.00 | 0.42 | 0.60 | 97 | 1007.3 | |
| 20260506130807 | 46 | 0.0 | 0.0 | 0.00 | 0.42 | 0.60 | 97 | 1007.2 | |
| 20260506130707 | 46 | 0.0 | 0.0 | 0.00 | 0.42 | 0.60 | 97 | 1007.3 | |
| 20260506130607 | 46 | 317 | 1.0 | 2.0 | 0.00 | 0.42 | 0.60 | 97 | 1007.3 |
| 20260506130507 | 46 | 312 | 4.0 | 4.0 | 0.00 | 0.42 | 0.60 | 97 | 1007.3 |
| 20260506130407 | 46 | 311 | 1.0 | 2.0 | 0.00 | 0.42 | 0.60 | 97 | 1007.3 |
| 20260506130307 | 46 | 315 | 2.0 | 3.0 | 0.00 | 0.42 | 0.60 | 97 | 1007.3 |
| 20260506130207 | 46 | 317 | 3.0 | 3.0 | 0.00 | 0.42 | 0.60 | 97 | 1007.3 |
| 20260506130107 | 46 | 324 | 1.0 | 1.0 | 0.00 | 0.42 | 0.60 | 97 | 1007.3 |
| 20260506130008 | 46 | 0.0 | 0.0 | 0.00 | 0.42 | 0.60 | 97 | 1007.3 | |
| 20260506125907 | 46 | 0.0 | 2.0 | 0.00 | 0.42 | 0.60 | 97 | 1007.3 | |
| 20260506125807 | 46 | 0.0 | 0.0 | 0.00 | 0.42 | 0.60 | 97 | 1007.2 | |
| 20260506125707 | 46 | 0.0 | 0.0 | 0.00 | 0.42 | 0.60 | 97 | 1007.2 | |
| 20260506125607 | 46 | 0.0 | 0.0 | 0.00 | 0.42 | 0.60 | 97 | 1007.2 | |
| 20260506125507 | 46 | 332 | 1.0 | 2.0 | 0.00 | 0.42 | 0.60 | 97 | 1007.3 |
| 20260506125407 | 46 | 333 | 1.0 | 1.0 | 0.00 | 0.42 | 0.60 | 97 | 1007.2 |
| 20260506125307 | 46 | 327 | 4.0 | 4.0 | 0.00 | 0.42 | 0.60 | 97 | 1007.2 |
| 20260506125207 | 46 | 315 | 2.0 | 4.0 | 0.00 | 0.42 | 0.60 | 97 | 1007.2 |
| 20260506125107 | 46 | 313 | 5.0 | 5.0 | 0.00 | 0.42 | 0.60 | 97 | 1007.2 |
| 20260506125007 | 46 | 307 | 4.0 | 4.0 | 0.00 | 0.42 | 0.60 | 97 | 1007.2 |
| 20260506124907 | 46 | 318 | 2.0 | 3.0 | 0.00 | 0.42 | 0.60 | 97 | 1007.2 |
| 20260506124807 | 46 | 313 | 3.0 | 4.0 | 0.00 | 0.42 | 0.60 | 97 | 1007.2 |
| 20260506124707 | 46 | 318 | 3.0 | 3.0 | 0.00 | 0.42 | 0.60 | 97 | 1007.2 |
| 20260506124607 | 46 | 301 | 1.0 | 2.0 | 0.00 | 0.42 | 0.60 | 97 | 1007.2 |
| 20260506124508 | 46 | 325 | 3.0 | 3.0 | 0.00 | 0.42 | 0.60 | 97 | 1007.2 |
| 20260506124407 | 47 | 331 | 5.0 | 5.0 | 0.00 | 0.42 | 0.60 | 97 | 1007.2 |
| 20260506124307 | 47 | 339 | 4.0 | 4.0 | 0.00 | 0.42 | 0.60 | 97 | 1007.1 |
| 20260506124207 | 46 | 331 | 5.0 | 6.0 | 0.00 | 0.42 | 0.60 | 97 | 1007.1 |
| 20260506124107 | 47 | 325 | 4.0 | 5.0 | 0.00 | 0.42 | 0.60 | 97 | 1007.1 |
| 20260506124007 | 47 | 330 | 6.0 | 7.0 | 0.00 | 0.42 | 0.60 | 97 | 1007.1 |
| 20260506123906 | 47 | 333 | 3.0 | 4.0 | 0.00 | 0.42 | 0.60 | 97 | 1007.1 |
| 20260506123808 | 47 | 338 | 6.0 | 6.0 | 0.00 | 0.42 | 0.60 | 97 | 1007.1 |
| 20260506123707 | 46 | 321 | 4.0 | 4.0 | 0.00 | 0.42 | 0.60 | 97 | 1007.1 |
| 20260506123607 | 46 | 315 | 4.0 | 4.0 | 0.00 | 0.42 | 0.60 | 97 | 1007.1 |
| 20260506123507 | 46 | 307 | 5.0 | 5.0 | 0.00 | 0.42 | 0.60 | 97 | 1007.1 |
| 20260506123407 | 46 | 0.0 | 2.0 | 0.00 | 0.42 | 0.60 | 97 | 1007.1 | |
| 20260506123307 | 46 | 311 | 1.0 | 1.0 | 0.00 | 0.42 | 0.60 | 97 | 1007.1 |
| 20260506123206 | 46 | 320 | 1.0 | 1.0 | 0.00 | 0.42 | 0.60 | 97 | 1007.0 |
| 20260506123107 | 46 | 0.0 | 2.0 | 0.00 | 0.42 | 0.60 | 97 | 1007.1 | |
| 20260506123007 | 46 | 319 | 3.0 | 3.0 | 0.00 | 0.42 | 0.60 | 97 | 1007.0 |
| 20260506122906 | 46 | 313 | 4.0 | 4.0 | 0.00 | 0.42 | 0.60 | 97 | 1007.0 |
| 20260506122806 | 46 | 298 | 4.0 | 7.0 | 0.00 | 0.42 | 0.60 | 97 | 1007.0 |
| 20260506122708 | 46 | 322 | 4.0 | 4.0 | 0.00 | 0.42 | 0.60 | 97 | 1007.0 |
| 20260506122607 | 46 | 309 | 3.0 | 3.0 | 0.00 | 0.42 | 0.60 | 97 | 1007.1 |
| 20260506122507 | 46 | 306 | 3.0 | 3.0 | 0.00 | 0.42 | 0.60 | 97 | 1007.0 |
| 20260506122406 | 46 | 308 | 5.0 | 5.0 | 0.00 | 0.42 | 0.60 | 97 | 1007.1 |
| 20260506122307 | 46 | 315 | 3.0 | 4.0 | 0.00 | 0.42 | 0.60 | 97 | 1007.0 |
| 20260506122207 | 46 | 0.0 | 0.0 | 0.00 | 0.42 | 0.60 | 97 | 1007.0 | |
| 20260506122107 | 46 | 313 | 1.0 | 2.0 | 0.00 | 0.42 | 0.60 | 97 | 1007.1 |
| 20260506122007 | 46 | 0.0 | 1.0 | 0.00 | 0.42 | 0.60 | 97 | 1007.1 | |
| 20260506121907 | 46 | 319 | 2.0 | 3.0 | 0.00 | 0.42 | 0.60 | 97 | 1007.0 |
| 20260506121806 | 46 | 315 | 4.0 | 4.0 | 0.00 | 0.42 | 0.60 | 97 | 1007.0 |
| 20260506121707 | 46 | 309 | 2.0 | 2.0 | 0.00 | 0.42 | 0.60 | 97 | 1007.0 |
| 20260506121607 | 46 | 311 | 3.0 | 3.0 | 0.00 | 0.42 | 0.60 | 97 | 1007.0 |
| 20260506121507 | 46 | 315 | 1.0 | 2.0 | 0.00 | 0.42 | 0.60 | 97 | 1007.0 |
| 20260506121407 | 46 | 0.0 | 0.0 | 0.00 | 0.42 | 0.60 | 97 | 1007.0 | |
| 20260506121307 | 46 | 0.0 | 0.0 | 0.00 | 0.42 | 0.60 | 97 | 1007.0 | |
| 20260506121207 | 46 | 0.0 | 0.0 | 0.00 | 0.42 | 0.60 | 97 | 1007.0 | |
| 20260506121107 | 46 | 0.0 | 1.0 | 0.00 | 0.42 | 0.60 | 97 | 1007.0 | |
| 20260506121007 | 46 | 319 | 1.0 | 2.0 | 0.00 | 0.42 | 0.60 | 97 | 1007.0 |
| 20260506120906 | 46 | 325 | 2.0 | 2.0 | 0.00 | 0.42 | 0.60 | 97 | 1007.0 |
| 20260506120807 | 47 | 0.0 | 0.0 | 0.00 | 0.42 | 0.60 | 97 | 1007.0 | |
| 20260506120707 | 47 | 0.0 | 0.0 | 0.00 | 0.42 | 0.60 | 97 | 1007.0 | |
| 20260506120607 | 47 | 0.0 | 0.0 | 0.00 | 0.42 | 0.60 | 97 | 1007.0 | |
| 20260506120508 | 47 | 0.0 | 0.0 | 0.00 | 0.42 | 0.60 | 97 | 1007.0 | |
| 20260506120407 | 47 | 307 | 2.0 | 2.0 | 0.00 | 0.42 | 0.60 | 97 | 1007.0 |
| 20260506120306 | 47 | 0.0 | 1.0 | 0.00 | 0.42 | 0.60 | 97 | 1006.9 | |
| 20260506120207 | 47 | 313 | 1.0 | 1.0 | 0.00 | 0.42 | 0.60 | 97 | 1006.9 |
| 20260506120107 | 47 | 0.0 | 0.0 | 0.00 | 0.42 | 0.60 | 97 | 1006.9 | |
| 20260506120007 | 47 | 0.0 | 0.0 | 0.00 | 0.42 | 0.60 | 97 | 1006.9 | |
| 20260506115907 | 47 | 317 | 2.0 | 3.0 | 0.00 | 0.42 | 0.60 | 97 | 1006.9 |
| 20260506115807 | 47 | 321 | 5.0 | 5.0 | 0.00 | 0.42 | 0.60 | 97 | 1006.9 |
| 20260506115707 | 47 | 334 | 1.0 | 2.0 | 0.00 | 0.42 | 0.60 | 97 | 1006.9 |
| 20260506115607 | 47 | 0.0 | 1.0 | 0.00 | 0.42 | 0.60 | 97 | 1006.8 | |
| 20260506115507 | 47 | 301 | 3.0 | 3.0 | 0.00 | 0.42 | 0.60 | 97 | 1006.8 |
| 20260506115407 | 47 | 322 | 2.0 | 2.0 | 0.00 | 0.42 | 0.60 | 97 | 1006.8 |
| 20260506115307 | 47 | 316 | 2.0 | 6.0 | 0.00 | 0.42 | 0.60 | 97 | 1006.8 |
| 20260506115206 | 47 | 338 | 5.0 | 5.0 | 0.00 | 0.42 | 0.60 | 97 | 1006.8 |
| 20260506115106 | 47 | 315 | 2.0 | 2.0 | 0.00 | 0.42 | 0.60 | 97 | 1006.8 |
| 20260506115007 | 47 | 0.0 | 0.0 | 0.00 | 0.42 | 0.60 | 97 | 1006.7 | |
| 20260506114906 | 47 | 0.0 | 0.0 | 0.00 | 0.42 | 0.60 | 97 | 1006.8 | |
| 20260506114807 | 47 | 315 | 2.0 | 3.0 | 0.00 | 0.42 | 0.60 | 97 | 1006.8 |
| 20260506114707 | 47 | 299 | 5.0 | 6.0 | 0.00 | 0.42 | 0.60 | 97 | 1006.8 |
| 20260506114607 | 47 | 317 | 4.0 | 4.0 | 0.00 | 0.42 | 0.60 | 97 | 1006.7 |
| 20260506114507 | 47 | 0.0 | 1.0 | 0.00 | 0.42 | 0.60 | 97 | 1006.7 | |
| 20260506114407 | 47 | 306 | 3.0 | 5.0 | 0.00 | 0.42 | 0.60 | 97 | 1006.7 |
| 20260506114308 | 47 | 325 | 3.0 | 3.0 | 0.00 | 0.42 | 0.60 | 97 | 1006.7 |
| 20260506114207 | 47 | 324 | 5.0 | 5.0 | 0.00 | 0.42 | 0.60 | 97 | 1006.7 |
| 20260506114107 | 47 | 308 | 3.0 | 3.0 | 0.00 | 0.42 | 0.60 | 97 | 1006.6 |
| 20260506114006 | 47 | 321 | 3.0 | 4.0 | 0.00 | 0.42 | 0.60 | 97 | 1006.6 |
| 20260506113908 | 47 | 307 | 6.0 | 6.0 | 0.00 | 0.42 | 0.60 | 97 | 1006.6 |
| 20260506113807 | 47 | 324 | 1.0 | 2.0 | 0.00 | 0.42 | 0.60 | 97 | 1006.6 |
| 20260506113706 | 47 | 332 | 4.0 | 4.0 | 0.00 | 0.42 | 0.60 | 97 | 1006.6 |
| 20260506113607 | 47 | 0.0 | 0.0 | 0.00 | 0.42 | 0.60 | 97 | 1006.6 | |
| 20260506113506 | 47 | 312 | 1.0 | 1.0 | 0.00 | 0.42 | 0.60 | 97 | 1006.7 |
| 20260506113406 | 47 | 304 | 3.0 | 5.0 | 0.00 | 0.42 | 0.60 | 97 | 1006.7 |
| 20260506113306 | 47 | 0.0 | 0.0 | 0.00 | 0.42 | 0.60 | 97 | 1006.7 | |
| 20260506113207 | 47 | 0.0 | 1.0 | 0.00 | 0.42 | 0.60 | 97 | 1006.7 | |
| 20260506113106 | 47 | 297 | 4.0 | 4.0 | 0.00 | 0.42 | 0.60 | 97 | 1006.7 |
| 20260506113007 | 47 | 305 | 2.0 | 2.0 | 0.00 | 0.42 | 0.60 | 97 | 1006.7 |
| 20260506112907 | 47 | 0.0 | 1.0 | 0.00 | 0.42 | 0.60 | 97 | 1006.7 | |
| 20260506112807 | 47 | 321 | 3.0 | 3.0 | 0.00 | 0.42 | 0.60 | 97 | 1006.7 |
| 20260506112707 | 47 | 296 | 3.0 | 4.0 | 0.00 | 0.42 | 0.60 | 97 | 1006.7 |
| 20260506112606 | 47 | 316 | 3.0 | 4.0 | 0.00 | 0.42 | 0.60 | 97 | 1006.7 |
| 20260506112507 | 47 | 315 | 3.0 | 4.0 | 0.00 | 0.42 | 0.60 | 97 | 1006.7 |
| 20260506112406 | 47 | 306 | 1.0 | 3.0 | 0.00 | 0.42 | 0.60 | 97 | 1006.7 |
| 20260506112307 | 47 | 0.0 | 0.0 | 0.00 | 0.42 | 0.60 | 97 | 1006.7 | |
| 20260506112206 | 47 | 315 | 1.0 | 1.0 | 0.00 | 0.42 | 0.60 | 97 | 1006.7 |
| 20260506112108 | 47 | 0.0 | 0.0 | 0.00 | 0.42 | 0.60 | 97 | 1006.7 | |
| 20260506112007 | 47 | 0.0 | 0.0 | 0.00 | 0.42 | 0.60 | 97 | 1006.7 | |
| 20260506111907 | 47 | 318 | 3.0 | 3.0 | 0.00 | 0.42 | 0.60 | 97 | 1006.8 |
| 20260506111807 | 47 | 315 | 3.0 | 3.0 | 0.00 | 0.42 | 0.60 | 97 | 1006.7 |
| 20260506111707 | 47 | 336 | 1.0 | 1.0 | 0.00 | 0.42 | 0.60 | 97 | 1006.7 |
| 20260506111606 | 47 | 336 | 2.0 | 2.0 | 0.00 | 0.42 | 0.60 | 97 | 1006.8 |
| 20260506111506 | 47 | 0.0 | 0.0 | 0.00 | 0.42 | 0.60 | 97 | 1006.7 | |
| 20260506111406 | 47 | 0.0 | 0.0 | 0.00 | 0.42 | 0.60 | 97 | 1006.7 | |
| 20260506111307 | 47 | 320 | 1.0 | 3.0 | 0.00 | 0.42 | 0.60 | 97 | 1006.7 |
| 20260506111206 | 47 | 0.0 | 0.0 | 0.00 | 0.42 | 0.60 | 97 | 1006.8 | |
| 20260506111106 | 47 | 0.0 | 0.0 | 0.00 | 0.42 | 0.60 | 97 | 1006.7 | |
| 20260506111007 | 47 | 319 | 2.0 | 3.0 | 0.00 | 0.42 | 0.60 | 97 | 1006.7 |
| 20260506110906 | 47 | 322 | 1.0 | 2.0 | 0.00 | 0.42 | 0.60 | 97 | 1006.8 |
| 20260506110807 | 47 | 0.0 | 0.0 | 0.00 | 0.42 | 0.60 | 97 | 1006.7 | |
| 20260506110706 | 47 | 304 | 1.0 | 1.0 | 0.00 | 0.42 | 0.60 | 97 | 1006.7 |
| 20260506110607 | 47 | 321 | 4.0 | 4.0 | 0.00 | 0.42 | 0.60 | 97 | 1006.7 |
| 20260506110506 | 47 | 333 | 1.0 | 2.0 | 0.00 | 0.42 | 0.60 | 97 | 1006.7 |
| 20260506110407 | 47 | 332 | 4.0 | 4.0 | 0.00 | 0.42 | 0.60 | 97 | 1006.7 |
| 20260506110307 | 47 | 329 | 4.0 | 5.0 | 0.00 | 0.42 | 0.60 | 98 | 1006.7 |
| 20260506110206 | 47 | 325 | 4.0 | 4.0 | 0.00 | 0.42 | 0.60 | 98 | 1006.7 |
| 20260506110106 | 47 | 333 | 4.0 | 4.0 | 0.00 | 0.42 | 0.60 | 98 | 1006.6 |
| 20260506110006 | 47 | 319 | 6.0 | 6.0 | 0.00 | 0.42 | 0.60 | 98 | 1006.6 |
| 20260506105907 | 47 | 327 | 5.0 | 5.0 | 0.00 | 0.42 | 0.60 | 98 | 1006.6 |
| 20260506105806 | 47 | 319 | 3.0 | 3.0 | 0.00 | 0.42 | 0.60 | 98 | 1006.6 |
| 20260506105707 | 47 | 304 | 1.0 | 2.0 | 0.00 | 0.42 | 0.60 | 98 | 1006.6 |
| 20260506105606 | 47 | 312 | 4.0 | 4.0 | 0.00 | 0.42 | 0.60 | 98 | 1006.7 |
| 20260506105507 | 47 | 303 | 3.0 | 3.0 | 0.00 | 0.42 | 0.60 | 98 | 1006.6 |
| 20260506105406 | 47 | 317 | 3.0 | 3.0 | 0.00 | 0.42 | 0.60 | 98 | 1006.7 |
| 20260506105306 | 48 | 319 | 6.0 | 7.0 | 0.00 | 0.42 | 0.60 | 98 | 1006.6 |
| 20260506105207 | 48 | 323 | 4.0 | 4.0 | 0.00 | 0.42 | 0.60 | 98 | 1006.7 |
| 20260506105107 | 48 | 314 | 4.0 | 4.0 | 0.00 | 0.42 | 0.60 | 98 | 1006.6 |
| 20260506105007 | 48 | 304 | 6.0 | 6.0 | 0.00 | 0.42 | 0.60 | 98 | 1006.6 |
| 20260506104907 | 48 | 328 | 4.0 | 4.0 | 0.00 | 0.42 | 0.60 | 98 | 1006.6 |
| 20260506104808 | 48 | 313 | 5.0 | 5.0 | 0.00 | 0.42 | 0.60 | 98 | 1006.6 |
| 20260506104706 | 48 | 308 | 1.0 | 1.0 | 0.00 | 0.42 | 0.60 | 98 | 1006.7 |
| 20260506104606 | 48 | 306 | 3.0 | 3.0 | 0.00 | 0.42 | 0.60 | 98 | 1006.6 |
| 20260506104506 | 48 | 340 | 5.0 | 5.0 | 0.00 | 0.42 | 0.60 | 98 | 1006.6 |
| 20260506104407 | 48 | 313 | 2.0 | 3.0 | 0.00 | 0.42 | 0.60 | 98 | 1006.6 |
| 20260506104307 | 48 | 0.0 | 0.0 | 0.00 | 0.42 | 0.60 | 98 | 1006.6 | |
| 20260506104206 | 48 | 0.0 | 0.0 | 0.00 | 0.42 | 0.60 | 98 | 1006.6 | |
| 20260506104106 | 48 | 313 | 5.0 | 5.0 | 0.00 | 0.42 | 0.60 | 98 | 1006.6 |
| 20260506104007 | 48 | 314 | 4.0 | 4.0 | 0.00 | 0.42 | 0.60 | 98 | 1006.6 |
| 20260506103907 | 48 | 310 | 5.0 | 5.0 | 0.00 | 0.42 | 0.60 | 98 | 1006.6 |
| 20260506103807 | 48 | 329 | 3.0 | 3.0 | 0.00 | 0.42 | 0.60 | 98 | 1006.6 |
| 20260506103707 | 48 | 313 | 4.0 | 5.0 | 0.00 | 0.42 | 0.60 | 98 | 1006.5 |
| 20260506103607 | 48 | 332 | 4.0 | 4.0 | 0.00 | 0.42 | 0.60 | 98 | 1006.5 |
| 20260506103507 | 48 | 331 | 5.0 | 5.0 | 0.00 | 0.42 | 0.60 | 98 | 1006.5 |
| 20260506103407 | 48 | 331 | 3.0 | 3.0 | 0.00 | 0.42 | 0.60 | 98 | 1006.5 |
| 20260506103307 | 48 | 321 | 4.0 | 5.0 | 0.00 | 0.42 | 0.60 | 98 | 1006.5 |
| 20260506103207 | 48 | 333 | 5.0 | 5.0 | 0.00 | 0.42 | 0.60 | 98 | 1006.5 |
| 20260506103107 | 48 | 328 | 5.0 | 5.0 | 0.00 | 0.42 | 0.60 | 98 | 1006.4 |
| 20260506103007 | 48 | 315 | 8.0 | 10.0 | 0.00 | 0.42 | 0.60 | 98 | 1006.5 |
| 20260506102907 | 48 | 299 | 3.0 | 4.0 | 0.00 | 0.42 | 0.60 | 98 | 1006.4 |
| 20260506102806 | 48 | 306 | 1.0 | 1.0 | 0.00 | 0.42 | 0.60 | 98 | 1006.5 |
| 20260506102706 | 48 | 317 | 2.0 | 3.0 | 0.00 | 0.42 | 0.60 | 98 | 1006.4 |
| 20260506102608 | 48 | 309 | 2.0 | 2.0 | 0.00 | 0.42 | 0.60 | 98 | 1006.5 |
| 20260506102506 | 48 | 311 | 2.0 | 2.0 | 0.00 | 0.42 | 0.60 | 98 | 1006.4 |
| 20260506102407 | 48 | 313 | 1.0 | 1.0 | 0.00 | 0.42 | 0.60 | 98 | 1006.4 |
| 20260506102307 | 48 | 315 | 2.0 | 3.0 | 0.00 | 0.42 | 0.60 | 98 | 1006.4 |
| 20260506102207 | 48 | 0.0 | 0.0 | 0.00 | 0.42 | 0.60 | 98 | 1006.5 | |
| 20260506102107 | 48 | 317 | 3.0 | 3.0 | 0.00 | 0.42 | 0.60 | 98 | 1006.4 |
| 20260506102007 | 48 | 315 | 3.0 | 3.0 | 0.00 | 0.42 | 0.60 | 98 | 1006.4 |
| 20260506101907 | 48 | 311 | 3.0 | 4.0 | 0.00 | 0.42 | 0.60 | 98 | 1006.4 |
| 20260506101806 | 48 | 312 | 2.0 | 4.0 | 0.00 | 0.42 | 0.60 | 98 | 1006.5 |
| 20260506101707 | 48 | 317 | 5.0 | 5.0 | 0.00 | 0.42 | 0.60 | 98 | 1006.4 |
| 20260506101607 | 48 | 326 | 4.0 | 4.0 | 0.00 | 0.42 | 0.60 | 98 | 1006.4 |
| 20260506101507 | 48 | 0.0 | 0.0 | 0.00 | 0.42 | 0.60 | 98 | 1006.4 | |
| 20260506101406 | 48 | 327 | 4.0 | 4.0 | 0.00 | 0.42 | 0.60 | 98 | 1006.4 |
| 20260506101306 | 48 | 321 | 3.0 | 3.0 | 0.00 | 0.42 | 0.60 | 98 | 1006.4 |
| 20260506101206 | 48 | 321 | 3.0 | 3.0 | 0.00 | 0.42 | 0.60 | 98 | 1006.4 |
| 20260506101107 | 48 | 325 | 5.0 | 5.0 | 0.00 | 0.42 | 0.60 | 98 | 1006.4 |
| 20260506101006 | 48 | 332 | 5.0 | 5.0 | 0.00 | 0.42 | 0.60 | 98 | 1006.3 |
| 20260506100907 | 48 | 336 | 4.0 | 4.0 | 0.00 | 0.42 | 0.60 | 98 | 1006.3 |
| 20260506100806 | 48 | 336 | 3.0 | 3.0 | 0.00 | 0.42 | 0.60 | 98 | 1006.3 |
| 20260506100706 | 48 | 324 | 6.0 | 6.0 | 0.00 | 0.42 | 0.60 | 98 | 1006.4 |
| 20260506100607 | 48 | 312 | 6.0 | 8.0 | 0.00 | 0.42 | 0.60 | 98 | 1006.3 |
| 20260506100506 | 48 | 327 | 6.0 | 6.0 | 0.00 | 0.42 | 0.60 | 98 | 1006.4 |
| 20260506100407 | 48 | 315 | 5.0 | 5.0 | 0.00 | 0.42 | 0.60 | 98 | 1006.4 |
| 20260506100306 | 48 | 319 | 6.0 | 6.0 | 0.00 | 0.42 | 0.60 | 98 | 1006.4 |
| 20260506100206 | 48 | 336 | 5.0 | 5.0 | 0.00 | 0.42 | 0.60 | 98 | 1006.4 |
| 20260506100106 | 48 | 318 | 9.0 | 9.0 | 0.00 | 0.42 | 0.60 | 98 | 1006.4 |
| 20260506100007 | 49 | 0.0 | 0.0 | 0.00 | 0.42 | 0.60 | 98 | 1006.4 | |
| 20260506095907 | 49 | 325 | 3.0 | 3.0 | 0.00 | 0.42 | 0.60 | 98 | 1006.4 |
| 20260506095807 | 49 | 315 | 3.0 | 3.0 | 0.00 | 0.42 | 0.60 | 98 | 1006.3 |
| 20260506095706 | 49 | 316 | 5.0 | 5.0 | 0.00 | 0.42 | 0.60 | 98 | 1006.3 |
| 20260506095606 | 49 | 283 | 2.0 | 3.0 | 0.00 | 0.42 | 0.60 | 98 | 1006.3 |
| 20260506095507 | 49 | 311 | 2.0 | 2.0 | 0.00 | 0.42 | 0.60 | 98 | 1006.2 |
| 20260506095406 | 49 | 323 | 4.0 | 4.0 | 0.00 | 0.42 | 0.60 | 98 | 1006.3 |
| 20260506095307 | 49 | 335 | 4.0 | 4.0 | 0.00 | 0.42 | 0.60 | 98 | 1006.2 |
| 20260506095206 | 49 | 313 | 5.0 | 5.0 | 0.00 | 0.42 | 0.60 | 98 | 1006.2 |
| 20260506095106 | 49 | 292 | 2.0 | 4.0 | 0.00 | 0.42 | 0.60 | 98 | 1006.2 |
| 20260506095007 | 49 | 315 | 4.0 | 4.0 | 0.00 | 0.42 | 0.60 | 98 | 1006.2 |
| 20260506094907 | 49 | 337 | 6.0 | 6.0 | 0.00 | 0.42 | 0.60 | 98 | 1006.2 |
| 20260506094806 | 49 | 324 | 4.0 | 4.0 | 0.00 | 0.42 | 0.60 | 98 | 1006.2 |
| 20260506094706 | 49 | 319 | 2.0 | 3.0 | 0.00 | 0.42 | 0.60 | 98 | 1006.2 |
| 20260506094606 | 49 | 311 | 3.0 | 4.0 | 0.00 | 0.42 | 0.60 | 98 | 1006.2 |
| 20260506094507 | 49 | 309 | 3.0 | 3.0 | 0.00 | 0.42 | 0.60 | 98 | 1006.2 |
| 20260506094406 | 49 | 316 | 5.0 | 6.0 | 0.00 | 0.42 | 0.60 | 98 | 1006.1 |
| 20260506094307 | 49 | 315 | 3.0 | 3.0 | 0.00 | 0.42 | 0.60 | 98 | 1006.1 |
| 20260506094207 | 49 | 321 | 3.0 | 3.0 | 0.00 | 0.42 | 0.60 | 98 | 1006.1 |
| 20260506094106 | 49 | 333 | 1.0 | 3.0 | 0.00 | 0.42 | 0.60 | 98 | 1006.1 |
| 20260506094006 | 49 | 0.0 | 0.0 | 0.00 | 0.42 | 0.60 | 98 | 1006.1 | |
| 20260506093906 | 49 | 0.0 | 0.0 | 0.00 | 0.42 | 0.60 | 98 | 1006.1 | |
| 20260506093807 | 49 | 319 | 4.0 | 5.0 | 0.00 | 0.42 | 0.60 | 98 | 1006.1 |
| 20260506093706 | 49 | 330 | 4.0 | 4.0 | 0.00 | 0.42 | 0.60 | 98 | 1006.1 |
| 20260506093607 | 49 | 325 | 6.0 | 6.0 | 0.00 | 0.42 | 0.60 | 98 | 1006.1 |
| 20260506093507 | 49 | 333 | 6.0 | 6.0 | 0.00 | 0.42 | 0.60 | 98 | 1006.1 |
| 20260506093406 | 49 | 319 | 3.0 | 3.0 | 0.00 | 0.42 | 0.60 | 98 | 1006.1 |
| 20260506093306 | 49 | 313 | 3.0 | 3.0 | 0.00 | 0.42 | 0.60 | 98 | 1006.1 |
| 20260506093206 | 49 | 312 | 4.0 | 4.0 | 0.00 | 0.42 | 0.60 | 98 | 1006.1 |
| 20260506093107 | 49 | 314 | 2.0 | 3.0 | 0.00 | 0.42 | 0.60 | 98 | 1006.1 |
| 20260506093006 | 49 | 312 | 4.0 | 5.0 | 0.00 | 0.42 | 0.60 | 98 | 1006.1 |
| 20260506092906 | 49 | 312 | 2.0 | 3.0 | 0.00 | 0.42 | 0.60 | 98 | 1006.0 |
| 20260506092806 | 49 | 311 | 2.0 | 3.0 | 0.00 | 0.42 | 0.60 | 98 | 1006.0 |
| 20260506092707 | 49 | 316 | 5.0 | 6.0 | 0.00 | 0.42 | 0.60 | 98 | 1006.0 |
| 20260506092606 | 49 | 323 | 2.0 | 2.0 | 0.00 | 0.42 | 0.60 | 98 | 1006.0 |
| 20260506092506 | 49 | 311 | 3.0 | 3.0 | 0.00 | 0.42 | 0.60 | 98 | 1005.9 |
| 20260506092407 | 49 | 316 | 3.0 | 3.0 | 0.00 | 0.42 | 0.60 | 98 | 1005.9 |
| 20260506092306 | 49 | 308 | 3.0 | 3.0 | 0.00 | 0.42 | 0.60 | 98 | 1005.9 |
| 20260506092206 | 49 | 304 | 4.0 | 5.0 | 0.00 | 0.42 | 0.60 | 98 | 1005.9 |
| 20260506092106 | 49 | 331 | 5.0 | 5.0 | 0.00 | 0.42 | 0.60 | 98 | 1005.9 |
| 20260506092007 | 49 | 0.0 | 0.0 | 0.00 | 0.42 | 0.60 | 98 | 1005.9 | |
| 20260506091906 | 49 | 327 | 2.0 | 2.0 | 0.00 | 0.42 | 0.60 | 98 | 1005.9 |
| 20260506091806 | 49 | 0.0 | 0.0 | 0.00 | 0.42 | 0.60 | 98 | 1005.9 | |
| 20260506091706 | 49 | 325 | 1.0 | 2.0 | 0.00 | 0.42 | 0.60 | 98 | 1006.0 |
| 20260506091607 | 49 | 323 | 4.0 | 4.0 | 0.00 | 0.42 | 0.60 | 98 | 1005.9 |
| 20260506091506 | 49 | 319 | 2.0 | 4.0 | 0.00 | 0.42 | 0.60 | 98 | 1006.0 |
| 20260506091407 | 49 | 319 | 3.0 | 4.0 | 0.00 | 0.42 | 0.60 | 98 | 1005.9 |
| 20260506091306 | 49 | 321 | 5.0 | 5.0 | 0.00 | 0.42 | 0.60 | 98 | 1005.9 |
| 20260506091206 | 49 | 331 | 3.0 | 3.0 | 0.00 | 0.42 | 0.60 | 98 | 1005.9 |
| 20260506091106 | 49 | 0.0 | 0.0 | 0.00 | 0.42 | 0.60 | 98 | 1005.9 | |
| 20260506091007 | 49 | 327 | 3.0 | 4.0 | 0.00 | 0.42 | 0.60 | 98 | 1005.9 |
| 20260506090907 | 49 | 317 | 2.0 | 2.0 | 0.00 | 0.42 | 0.60 | 98 | 1005.9 |
| 20260506090807 | 49 | 321 | 4.0 | 4.0 | 0.00 | 0.42 | 0.60 | 98 | 1005.9 |
| 20260506090706 | 49 | 330 | 2.0 | 2.0 | 0.00 | 0.42 | 0.60 | 98 | 1005.9 |
| 20260506090606 | 49 | 333 | 2.0 | 2.0 | 0.00 | 0.42 | 0.60 | 98 | 1005.9 |
| 20260506090507 | 49 | 334 | 2.0 | 2.0 | 0.00 | 0.42 | 0.60 | 98 | 1005.8 |
| 20260506090407 | 49 | 333 | 3.0 | 3.0 | 0.00 | 0.42 | 0.60 | 98 | 1005.9 |
| 20260506090307 | 49 | 311 | 2.0 | 2.0 | 0.00 | 0.42 | 0.60 | 98 | 1005.8 |
| 20260506090207 | 49 | 311 | 1.0 | 1.0 | 0.00 | 0.42 | 0.60 | 98 | 1005.8 |
| 20260506090106 | 49 | 310 | 2.0 | 2.0 | 0.00 | 0.42 | 0.60 | 98 | 1005.8 |
| 20260506090006 | 49 | 327 | 1.0 | 3.0 | 0.00 | 0.42 | 0.60 | 98 | 1005.7 |
| 20260506085906 | 49 | 0.0 | 0.0 | 0.00 | 0.42 | 0.60 | 98 | 1005.7 | |
| 20260506085807 | 49 | 321 | 3.0 | 3.0 | 0.00 | 0.42 | 0.60 | 98 | 1005.7 |
| 20260506085706 | 49 | 284 | 3.0 | 3.0 | 0.00 | 0.42 | 0.60 | 98 | 1005.7 |
| 20260506085606 | 49 | 297 | 2.0 | 2.0 | 0.00 | 0.42 | 0.60 | 98 | 1005.7 |
| 20260506085506 | 49 | 310 | 4.0 | 4.0 | 0.00 | 0.42 | 0.60 | 98 | 1005.7 |
| 20260506085407 | 49 | 313 | 2.0 | 2.0 | 0.00 | 0.42 | 0.60 | 98 | 1005.7 |
| 20260506085307 | 49 | 0.0 | 0.0 | 0.00 | 0.42 | 0.60 | 98 | 1005.7 | |
| 20260506085206 | 49 | 310 | 3.0 | 3.0 | 0.00 | 0.42 | 0.60 | 98 | 1005.7 |
| 20260506085106 | 49 | 328 | 4.0 | 4.0 | 0.00 | 0.42 | 0.60 | 98 | 1005.7 |
| 20260506085006 | 49 | 329 | 2.0 | 2.0 | 0.00 | 0.42 | 0.60 | 98 | 1005.7 |
| 20260506084907 | 49 | 336 | 3.0 | 3.0 | 0.00 | 0.42 | 0.60 | 98 | 1005.6 |
| 20260506084806 | 49 | 334 | 3.0 | 3.0 | 0.00 | 0.42 | 0.60 | 98 | 1005.6 |
| 20260506084707 | 49 | 327 | 2.0 | 2.0 | 0.00 | 0.42 | 0.60 | 98 | 1005.6 |
| 20260506084606 | 49 | 327 | 4.0 | 4.0 | 0.00 | 0.42 | 0.60 | 98 | 1005.6 |
| 20260506084506 | 49 | 319 | 4.0 | 4.0 | 0.00 | 0.42 | 0.60 | 98 | 1005.6 |
| 20260506084406 | 49 | 331 | 2.0 | 3.0 | 0.00 | 0.42 | 0.60 | 98 | 1005.6 |
| 20260506084307 | 49 | 329 | 2.0 | 3.0 | 0.00 | 0.42 | 0.60 | 98 | 1005.6 |
| 20260506084206 | 49 | 306 | 5.0 | 5.0 | 0.00 | 0.42 | 0.60 | 98 | 1005.6 |
| 20260506084106 | 49 | 322 | 4.0 | 5.0 | 0.01 | 0.42 | 0.60 | 98 | 1005.6 |
| 20260506084007 | 49 | 329 | 4.0 | 4.0 | 0.01 | 0.42 | 0.60 | 98 | 1005.7 |
| 20260506083906 | 49 | 326 | 6.0 | 6.0 | 0.01 | 0.42 | 0.60 | 98 | 1005.6 |
| 20260506083806 | 49 | 315 | 1.0 | 1.0 | 0.01 | 0.42 | 0.60 | 98 | 1005.6 |
| 20260506083706 | 49 | 0.0 | 0.0 | 0.01 | 0.42 | 0.60 | 98 | 1005.6 | |
| 20260506083607 | 49 | 0.0 | 1.0 | 0.01 | 0.42 | 0.60 | 98 | 1005.6 | |
| 20260506083507 | 49 | 316 | 1.0 | 1.0 | 0.01 | 0.42 | 0.60 | 98 | 1005.6 |
| 20260506083406 | 49 | 0.0 | 0.0 | 0.01 | 0.42 | 0.60 | 98 | 1005.6 | |
| 20260506083307 | 49 | 0.0 | 0.0 | 0.01 | 0.42 | 0.60 | 98 | 1005.6 | |
| 20260506083207 | 49 | 0.0 | 0.0 | 0.01 | 0.42 | 0.60 | 98 | 1005.6 | |
| 20260506083106 | 49 | 0.0 | 1.0 | 0.01 | 0.42 | 0.60 | 98 | 1005.6 | |
| 20260506083006 | 49 | 308 | 3.0 | 3.0 | 0.01 | 0.42 | 0.60 | 98 | 1005.5 |
| 20260506082906 | 49 | 336 | 2.0 | 3.0 | 0.01 | 0.42 | 0.60 | 98 | 1005.5 |
| 20260506082806 | 49 | 323 | 5.0 | 9.0 | 0.01 | 0.42 | 0.60 | 98 | 1005.5 |
| 20260506082652 | 49 | 319 | 6.0 | 7.0 | 0.01 | 0.42 | 0.60 | 98 | 1005.6 |
| 20260506082552 | 49 | 322 | 4.0 | 4.0 | 0.01 | 0.42 | 0.60 | 98 | 1005.6 |
| 20260506082453 | 49 | 315 | 2.0 | 2.0 | 0.01 | 0.42 | 0.60 | 98 | 1005.6 |
| 20260506082352 | 49 | 313 | 3.0 | 3.0 | 0.01 | 0.42 | 0.60 | 98 | 1005.6 |
| 20260506082242 | 49 | 304 | 2.0 | 2.0 | 0.01 | 0.42 | 0.59 | 98 | 1005.6 |
| 20260506082142 | 49 | 316 | 2.0 | 3.0 | 0.01 | 0.42 | 0.59 | 98 | 1005.5 |
| 20260506082043 | 49 | 296 | 4.0 | 5.0 | 0.01 | 0.42 | 0.59 | 98 | 1005.5 |
| 20260506081932 | 49 | 284 | 2.0 | 2.0 | 0.01 | 0.42 | 0.59 | 98 | 1005.5 |
| 20260506081832 | 49 | 237 | 2.0 | 4.0 | 0.01 | 0.42 | 0.59 | 98 | 1005.5 |
| 20260506081733 | 49 | 309 | 4.0 | 4.0 | 0.01 | 0.42 | 0.59 | 98 | 1005.5 |
| 20260506081633 | 49 | 311 | 3.0 | 4.0 | 0.01 | 0.42 | 0.59 | 98 | 1005.5 |
| 20260506081532 | 49 | 306 | 3.0 | 4.0 | 0.01 | 0.42 | 0.59 | 98 | 1005.5 |
| 20260506081432 | 49 | 0.0 | 0.0 | 0.01 | 0.42 | 0.59 | 98 | 1005.5 | |
| 20260506081333 | 49 | 0.0 | 0.0 | 0.01 | 0.42 | 0.59 | 98 | 1005.5 | |
| 20260506081232 | 49 | 0.0 | 0.0 | 0.01 | 0.42 | 0.59 | 98 | 1005.4 | |
| 20260506081132 | 49 | 0.0 | 0.0 | 0.01 | 0.42 | 0.59 | 98 | 1005.5 | |
| 20260506081032 | 49 | 271 | 3.0 | 3.0 | 0.01 | 0.42 | 0.59 | 98 | 1005.4 |
| 20260506080933 | 49 | 0.0 | 0.0 | 0.01 | 0.42 | 0.59 | 98 | 1005.5 | |
| 20260506080832 | 49 | 0.0 | 0.0 | 0.01 | 0.42 | 0.59 | 98 | 1005.5 | |
| 20260506080732 | 49 | 0.0 | 0.0 | 0.01 | 0.42 | 0.59 | 98 | 1005.5 | |
| 20260506080632 | 49 | 0.0 | 0.0 | 0.01 | 0.42 | 0.59 | 98 | 1005.4 | |
| 20260506080532 | 49 | 0.0 | 0.0 | 0.01 | 0.42 | 0.59 | 98 | 1005.4 | |
| 20260506080432 | 49 | 0.0 | 0.0 | 0.01 | 0.42 | 0.59 | 98 | 1005.5 | |
| 20260506080332 | 49 | 312 | 3.0 | 4.0 | 0.01 | 0.42 | 0.59 | 98 | 1005.4 |
| 20260506080233 | 49 | 319 | 2.0 | 2.0 | 0.01 | 0.42 | 0.59 | 98 | 1005.4 |
| 20260506080133 | 49 | 218 | 1.0 | 1.0 | 0.01 | 0.42 | 0.59 | 98 | 1005.4 |
| 20260506073503 | 50 | 310 | 1.0 | 1.0 | 0.02 | 0.41 | 0.57 | 98 | 1005.2 |
| 20260506073402 | 50 | 310 | 1.0 | 2.0 | 0.02 | 0.41 | 0.57 | 98 | 1005.2 |
| 20260506073302 | 50 | 314 | 4.0 | 4.0 | 0.02 | 0.41 | 0.57 | 98 | 1005.2 |
| 20260506073202 | 50 | 325 | 3.0 | 3.0 | 0.02 | 0.41 | 0.57 | 98 | 1005.2 |
| 20260506073102 | 50 | 327 | 2.0 | 2.0 | 0.02 | 0.41 | 0.57 | 98 | 1005.2 |
| 20260506073002 | 50 | 327 | 2.0 | 2.0 | 0.02 | 0.41 | 0.57 | 98 | 1005.2 |
| 20260506072903 | 50 | 321 | 3.0 | 3.0 | 0.02 | 0.41 | 0.57 | 98 | 1005.2 |
| 20260506072803 | 50 | 324 | 3.0 | 3.0 | 0.02 | 0.41 | 0.57 | 98 | 1005.2 |
| 20260506072702 | 50 | 326 | 2.0 | 2.0 | 0.02 | 0.41 | 0.57 | 98 | 1005.2 |
| 20260506072602 | 50 | 326 | 3.0 | 3.0 | 0.02 | 0.41 | 0.57 | 98 | 1005.2 |
| 20260506072503 | 50 | 326 | 2.0 | 2.0 | 0.02 | 0.41 | 0.57 | 98 | 1005.2 |
| 20260506072402 | 50 | 325 | 2.0 | 2.0 | 0.02 | 0.41 | 0.57 | 98 | 1005.1 |
| 20260506072253 | 50 | 325 | 3.0 | 3.0 | 0.02 | 0.41 | 0.57 | 98 | 1005.1 |
| 20260506072152 | 50 | 325 | 1.0 | 2.0 | 0.02 | 0.41 | 0.57 | 98 | 1005.2 |
| 20260506072052 | 50 | 325 | 2.0 | 2.0 | 0.02 | 0.41 | 0.57 | 98 | 1005.1 |
| 20260506071952 | 50 | 326 | 1.0 | 1.0 | 0.02 | 0.41 | 0.57 | 98 | 1005.2 |
| 20260506071852 | 50 | 328 | 2.0 | 2.0 | 0.03 | 0.41 | 0.57 | 98 | 1005.1 |
| 20260506071753 | 50 | 328 | 3.0 | 4.0 | 0.03 | 0.41 | 0.57 | 98 | 1005.1 |
| 20260506071656 | 50 | 324 | 2.0 | 2.0 | 0.03 | 0.41 | 0.57 | 98 | 1005.2 |
| 20260506071542 | 50 | 324 | 1.0 | 2.0 | 0.03 | 0.41 | 0.57 | 98 | 1005.1 |
| 20260506071442 | 50 | 323 | 2.0 | 3.0 | 0.03 | 0.41 | 0.57 | 98 | 1005.2 |
| 20260506071343 | 50 | 336 | 3.0 | 3.0 | 0.03 | 0.41 | 0.57 | 98 | 1005.1 |
| 20260506071242 | 50 | 328 | 2.0 | 2.0 | 0.03 | 0.41 | 0.57 | 98 | 1005.1 |
| 20260506071142 | 50 | 328 | 2.0 | 2.0 | 0.03 | 0.41 | 0.57 | 98 | 1005.1 |
| 20260506071042 | 50 | 329 | 3.0 | 3.0 | 0.03 | 0.41 | 0.57 | 98 | 1005.1 |
| 20260506070932 | 50 | 329 | 3.0 | 3.0 | 0.03 | 0.41 | 0.57 | 98 | 1005.1 |
| 20260506070832 | 50 | 329 | 2.0 | 2.0 | 0.03 | 0.41 | 0.57 | 98 | 1005.1 |
| 20260506070732 | 50 | 329 | 1.0 | 1.0 | 0.03 | 0.41 | 0.57 | 98 | 1005.1 |
| 20260506070633 | 50 | 0.0 | 0.0 | 0.03 | 0.41 | 0.57 | 98 | 1005.1 | |
| 20260506070532 | 50 | 331 | 2.0 | 2.0 | 0.03 | 0.41 | 0.57 | 98 | 1005.1 |
| 20260506070432 | 50 | 331 | 1.0 | 2.0 | 0.03 | 0.41 | 0.57 | 98 | 1005.1 |
| 20260506070332 | 50 | 331 | 1.0 | 1.0 | 0.03 | 0.41 | 0.57 | 98 | 1005.1 |
| 20260506070233 | 49 | 331 | 3.0 | 3.0 | 0.03 | 0.41 | 0.57 | 98 | 1005.1 |
| 20260506070132 | 49 | 0.0 | 0.0 | 0.03 | 0.41 | 0.57 | 98 | 1005.1 | |
| 20260506062422 | 49 | 0.0 | 1.0 | 0.02 | 0.39 | 0.54 | 98 | 1005.0 | |
| 20260506062322 | 49 | 0.0 | 0.0 | 0.02 | 0.39 | 0.54 | 98 | 1004.9 | |
| 20260506062223 | 49 | 0.0 | 0.0 | 0.02 | 0.39 | 0.54 | 98 | 1004.9 | |
| 20260506062122 | 49 | 0.0 | 0.0 | 0.02 | 0.39 | 0.54 | 98 | 1005.0 | |
| 20260506062022 | 49 | 355 | 1.0 | 1.0 | 0.02 | 0.39 | 0.54 | 98 | 1005.0 |
| 20260506061922 | 49 | 355 | 2.0 | 2.0 | 0.01 | 0.38 | 0.53 | 98 | 1004.9 |
| 20260506061823 | 49 | 0.0 | 0.0 | 0.01 | 0.38 | 0.53 | 98 | 1005.0 | |
| 20260506061722 | 49 | 0.0 | 0.0 | 0.01 | 0.38 | 0.53 | 98 | 1004.9 | |
| 20260506061622 | 49 | 19 | 1.0 | 1.0 | 0.02 | 0.38 | 0.53 | 98 | 1004.9 |
| 20260506061523 | 49 | 0.0 | 0.0 | 0.02 | 0.38 | 0.53 | 98 | 1004.9 | |
| 20260506061422 | 49 | 0.0 | 0.0 | 0.02 | 0.38 | 0.53 | 98 | 1004.9 | |
| 20260506061322 | 49 | 19 | 1.0 | 2.0 | 0.02 | 0.38 | 0.52 | 98 | 1004.9 |
| 20260506061222 | 49 | 0.0 | 0.0 | 0.02 | 0.38 | 0.52 | 98 | 1004.9 | |
| 20260506061123 | 49 | 0.0 | 0.0 | 0.02 | 0.38 | 0.52 | 98 | 1004.8 | |
| 20260506061022 | 49 | 0.0 | 0.0 | 0.02 | 0.38 | 0.52 | 98 | 1004.9 | |
| 20260506060922 | 49 | 0.0 | 0.0 | 0.02 | 0.38 | 0.51 | 98 | 1004.8 | |
| 20260506060822 | 49 | 0.0 | 0.0 | 0.02 | 0.38 | 0.51 | 98 | 1004.8 | |
| 20260506060723 | 49 | 0.0 | 0.0 | 0.02 | 0.38 | 0.51 | 98 | 1004.8 | |
| 20260506060622 | 49 | 0.0 | 0.0 | 0.02 | 0.38 | 0.51 | 98 | 1004.8 | |
| 20260506060522 | 49 | 0.0 | 0.0 | 0.02 | 0.38 | 0.51 | 98 | 1004.8 | |
| 20260506060422 | 49 | 0.0 | 0.0 | 0.02 | 0.38 | 0.51 | 98 | 1004.8 | |
| 20260506060322 | 49 | 0.0 | 0.0 | 0.02 | 0.38 | 0.50 | 98 | 1004.9 | |
| 20260506060222 | 49 | 0.0 | 0.0 | 0.02 | 0.38 | 0.50 | 98 | 1004.8 | |
| 20260506060122 | 49 | 22 | 2.0 | 2.0 | 0.02 | 0.38 | 0.50 | 98 | 1004.8 |
| 20260506051322 | 49 | 0.0 | 0.0 | 0.02 | 0.36 | 0.46 | 98 | 1004.7 | |
| 20260506051222 | 49 | 0.0 | 0.0 | 0.02 | 0.36 | 0.46 | 98 | 1004.6 | |
| 20260506051122 | 49 | 17 | 1.0 | 1.0 | 0.02 | 0.36 | 0.46 | 98 | 1004.7 |
| 20260506051023 | 49 | 0.0 | 0.0 | 0.02 | 0.36 | 0.46 | 98 | 1004.6 | |
| 20260506050922 | 49 | 0.0 | 0.0 | 0.02 | 0.36 | 0.46 | 98 | 1004.7 | |
| 20260506050823 | 49 | 0.0 | 0.0 | 0.02 | 0.36 | 0.46 | 98 | 1004.7 | |
| 20260506050722 | 49 | 0.0 | 0.0 | 0.02 | 0.36 | 0.46 | 98 | 1004.7 | |
| 20260506050622 | 49 | 0.0 | 0.0 | 0.02 | 0.36 | 0.46 | 98 | 1004.7 | |
| 20260506050523 | 49 | 0.0 | 0.0 | 0.02 | 0.36 | 0.46 | 98 | 1004.7 | |
| 20260506050422 | 49 | 0.0 | 0.0 | 0.02 | 0.35 | 0.45 | 98 | 1004.7 | |
| 20260506050322 | 49 | 0.0 | 0.0 | 0.02 | 0.35 | 0.45 | 98 | 1004.7 | |
| 20260506050222 | 49 | 0.0 | 0.0 | 0.02 | 0.35 | 0.45 | 98 | 1004.7 | |
| 20260506050123 | 49 | 0.0 | 0.0 | 0.02 | 0.35 | 0.45 | 98 | 1004.7 | |
| 20260506045122 | 49 | 0.0 | 0.0 | 0.02 | 0.35 | 0.44 | 98 | 1004.7 | |
| 20260506045022 | 49 | 0.0 | 0.0 | 0.02 | 0.35 | 0.44 | 98 | 1004.7 | |
| 20260506044922 | 49 | 0.0 | 0.0 | 0.02 | 0.35 | 0.43 | 98 | 1004.7 | |
| 20260506044822 | 49 | 0.0 | 0.0 | 0.02 | 0.35 | 0.43 | 98 | 1004.7 | |
| 20260506044722 | 49 | 35 | 1.0 | 1.0 | 0.02 | 0.35 | 0.43 | 98 | 1004.7 |
| 20260506044622 | 49 | 0.0 | 0.0 | 0.02 | 0.35 | 0.43 | 98 | 1004.7 | |
| 20260506044522 | 49 | 0.0 | 0.0 | 0.02 | 0.35 | 0.43 | 98 | 1004.7 | |
| 20260506044422 | 49 | 0.0 | 0.0 | 0.02 | 0.35 | 0.43 | 98 | 1004.8 | |
| 20260506044323 | 49 | 0.0 | 0.0 | 0.02 | 0.35 | 0.43 | 98 | 1004.8 | |
| 20260506044222 | 49 | 0.0 | 0.0 | 0.02 | 0.35 | 0.43 | 98 | 1004.7 | |
| 20260506044122 | 49 | 0.0 | 0.0 | 0.02 | 0.35 | 0.43 | 98 | 1004.8 | |
| 20260506044022 | 49 | 0.0 | 0.0 | 0.02 | 0.35 | 0.42 | 98 | 1004.8 | |
| 20260506043923 | 49 | 39 | 1.0 | 1.0 | 0.02 | 0.35 | 0.42 | 98 | 1004.7 |
| 20260506043822 | 49 | 37 | 1.0 | 1.0 | 0.02 | 0.35 | 0.42 | 98 | 1004.7 |
| 20260506043722 | 49 | 0.0 | 0.0 | 0.02 | 0.35 | 0.42 | 98 | 1004.7 | |
| 20260506043622 | 49 | 0.0 | 0.0 | 0.02 | 0.35 | 0.42 | 98 | 1004.7 | |
| 20260506043522 | 49 | 0.0 | 0.0 | 0.02 | 0.35 | 0.42 | 98 | 1004.7 | |
| 20260506043422 | 49 | 0.0 | 0.0 | 0.02 | 0.35 | 0.42 | 98 | 1004.7 | |
| 20260506043322 | 49 | 0.0 | 0.0 | 0.03 | 0.35 | 0.42 | 98 | 1004.8 | |
| 20260506043223 | 49 | 35 | 1.0 | 2.0 | 0.03 | 0.35 | 0.42 | 98 | 1004.7 |
| 20260506043122 | 49 | 0.0 | 0.0 | 0.03 | 0.35 | 0.42 | 98 | 1004.7 | |
| 20260506043022 | 49 | 34 | 1.0 | 1.0 | 0.03 | 0.35 | 0.42 | 98 | 1004.7 |
| 20260506042922 | 49 | 0.0 | 0.0 | 0.02 | 0.35 | 0.41 | 98 | 1004.7 | |
| 20260506042822 | 49 | 0.0 | 0.0 | 0.02 | 0.35 | 0.41 | 98 | 1004.6 | |
| 20260506042722 | 49 | 0.0 | 0.0 | 0.02 | 0.35 | 0.41 | 98 | 1004.6 | |
| 20260506042622 | 49 | 0.0 | 0.0 | 0.02 | 0.35 | 0.41 | 98 | 1004.6 | |
| 20260506042522 | 49 | 0.0 | 0.0 | 0.02 | 0.35 | 0.41 | 98 | 1004.7 | |
| 20260506042422 | 49 | 0.0 | 0.0 | 0.02 | 0.35 | 0.41 | 98 | 1004.7 | |
| 20260506042322 | 49 | 52 | 1.0 | 1.0 | 0.02 | 0.35 | 0.41 | 98 | 1004.7 |
| 20260506042222 | 49 | 0.0 | 0.0 | 0.02 | 0.35 | 0.41 | 98 | 1004.7 | |
| 20260506042123 | 49 | 45 | 2.0 | 2.0 | 0.02 | 0.35 | 0.41 | 98 | 1004.7 |
| 20260506042022 | 49 | 0.0 | 0.0 | 0.02 | 0.35 | 0.41 | 98 | 1004.7 | |
| 20260506041922 | 49 | 0.0 | 0.0 | 0.02 | 0.35 | 0.41 | 98 | 1004.7 | |
| 20260506041822 | 49 | 0.0 | 0.0 | 0.02 | 0.35 | 0.40 | 98 | 1004.7 | |
| 20260506041723 | 49 | 42 | 1.0 | 1.0 | 0.02 | 0.35 | 0.40 | 98 | 1004.7 |
| 20260506041622 | 49 | 43 | 2.0 | 2.0 | 0.02 | 0.35 | 0.40 | 98 | 1004.7 |
| 20260506041522 | 49 | 0.0 | 0.0 | 0.02 | 0.35 | 0.40 | 98 | 1004.7 | |
| 20260506041422 | 49 | 0.0 | 0.0 | 0.02 | 0.35 | 0.40 | 98 | 1004.6 | |
| 20260506041322 | 49 | 0.0 | 0.0 | 0.02 | 0.35 | 0.40 | 98 | 1004.6 | |
| 20260506041222 | 49 | 42 | 4.0 | 4.0 | 0.02 | 0.35 | 0.39 | 98 | 1004.7 |
| 20260506041122 | 49 | 338 | 2.0 | 3.0 | 0.02 | 0.35 | 0.39 | 98 | 1004.6 |
| 20260506041023 | 49 | 0.0 | 0.0 | 0.02 | 0.35 | 0.39 | 98 | 1004.7 | |
| 20260506040922 | 49 | 0.0 | 0.0 | 0.02 | 0.35 | 0.39 | 98 | 1004.7 | |
| 20260506040822 | 49 | 0.0 | 1.0 | 0.02 | 0.35 | 0.39 | 98 | 1004.7 | |
| 20260506040722 | 49 | 0.0 | 0.0 | 0.02 | 0.34 | 0.39 | 98 | 1004.7 | |
| 20260506040622 | 49 | 0.0 | 0.0 | 0.02 | 0.34 | 0.39 | 98 | 1004.7 | |
| 20260506040522 | 49 | 55 | 1.0 | 1.0 | 0.02 | 0.34 | 0.39 | 98 | 1004.7 |
| 20260506040422 | 49 | 20 | 1.0 | 1.0 | 0.02 | 0.34 | 0.39 | 98 | 1004.7 |
| 20260506040322 | 49 | 0.0 | 0.0 | 0.02 | 0.34 | 0.39 | 98 | 1004.7 | |
| 20260506040222 | 49 | 0.0 | 0.0 | 0.02 | 0.34 | 0.39 | 98 | 1004.7 | |
| 20260506040122 | 49 | 0.0 | 0.0 | 0.02 | 0.34 | 0.38 | 98 | 1004.7 | |
| 20260506040022 | 49 | 0.0 | 0.0 | 0.02 | 0.34 | 0.38 | 98 | 1004.7 | |
| 20260506035923 | 49 | 0.0 | 0.0 | 0.02 | 0.34 | 0.38 | 98 | 1004.7 | |
| 20260506035822 | 49 | 0.0 | 0.0 | 0.02 | 0.34 | 0.38 | 98 | 1004.8 | |
| 20260506035722 | 49 | 0.0 | 0.0 | 0.02 | 0.34 | 0.38 | 98 | 1004.7 | |
| 20260506035622 | 49 | 0.0 | 0.0 | 0.02 | 0.34 | 0.38 | 98 | 1004.8 | |
| 20260506035523 | 49 | 0.0 | 1.0 | 0.02 | 0.34 | 0.38 | 98 | 1004.7 | |
| 20260506035422 | 49 | 0.0 | 0.0 | 0.02 | 0.34 | 0.38 | 98 | 1004.8 | |
| 20260506035322 | 49 | 0.0 | 0.0 | 0.02 | 0.34 | 0.38 | 98 | 1004.8 | |
| 20260506035222 | 49 | 0.0 | 0.0 | 0.02 | 0.34 | 0.38 | 98 | 1004.8 | |
| 20260506035122 | 49 | 0.0 | 0.0 | 0.02 | 0.34 | 0.38 | 98 | 1004.8 | |
| 20260506035022 | 49 | 11 | 1.0 | 1.0 | 0.02 | 0.34 | 0.38 | 98 | 1004.8 |
| 20260506034922 | 49 | 11 | 1.0 | 2.0 | 0.02 | 0.34 | 0.38 | 98 | 1004.8 |
| 20260506034822 | 49 | 0.0 | 0.0 | 0.02 | 0.34 | 0.37 | 98 | 1004.7 | |
| 20260506034722 | 49 | 0.0 | 0.0 | 0.02 | 0.34 | 0.37 | 98 | 1004.7 | |
| 20260506034622 | 49 | 0.0 | 0.0 | 0.02 | 0.34 | 0.37 | 98 | 1004.7 | |
| 20260506034522 | 49 | 0.0 | 0.0 | 0.02 | 0.34 | 0.37 | 98 | 1004.7 | |
| 20260506034423 | 49 | 0.0 | 0.0 | 0.02 | 0.34 | 0.37 | 98 | 1004.7 | |
| 20260506034322 | 49 | 0.0 | 1.0 | 0.02 | 0.34 | 0.37 | 98 | 1004.7 | |
| 20260506034222 | 49 | 0.0 | 0.0 | 0.02 | 0.34 | 0.37 | 98 | 1004.7 | |
| 20260506034122 | 49 | 0.0 | 0.0 | 0.02 | 0.34 | 0.37 | 98 | 1004.7 | |
| 20260506034022 | 49 | 0.0 | 0.0 | 0.02 | 0.33 | 0.36 | 98 | 1004.7 | |
| 20260506033922 | 49 | 0.0 | 0.0 | 0.02 | 0.33 | 0.36 | 98 | 1004.7 | |
| 20260506033822 | 49 | 0.0 | 0.0 | 0.02 | 0.33 | 0.36 | 98 | 1004.7 | |
| 20260506033722 | 49 | 0.0 | 0.0 | 0.02 | 0.33 | 0.36 | 98 | 1004.7 | |
| 20260506033622 | 49 | 0.0 | 0.0 | 0.02 | 0.33 | 0.36 | 98 | 1004.7 | |
| 20260506033522 | 49 | 0.0 | 0.0 | 0.02 | 0.33 | 0.36 | 98 | 1004.7 | |
| 20260506033422 | 49 | 0.0 | 0.0 | 0.02 | 0.33 | 0.36 | 98 | 1004.8 | |
| 20260506033322 | 49 | 0.0 | 0.0 | 0.01 | 0.32 | 0.35 | 98 | 1004.9 | |
| 20260506033222 | 49 | 0.0 | 0.0 | 0.01 | 0.32 | 0.35 | 98 | 1004.9 | |
| 20260506033122 | 49 | 0.0 | 1.0 | 0.01 | 0.32 | 0.35 | 98 | 1004.8 | |
| 20260506033022 | 49 | 38 | 1.0 | 1.0 | 0.01 | 0.32 | 0.35 | 98 | 1004.9 |
| 20260506032921 | 49 | 0.0 | 0.0 | 0.01 | 0.32 | 0.35 | 98 | 1004.9 | |
| 20260506032822 | 49 | 0.0 | 0.0 | 0.01 | 0.32 | 0.35 | 98 | 1004.9 | |
| 20260506032722 | 49 | 47 | 2.0 | 2.0 | 0.01 | 0.32 | 0.35 | 98 | 1004.8 |
| 20260506032623 | 49 | 0.0 | 0.0 | 0.01 | 0.32 | 0.35 | 98 | 1004.8 | |
| 20260506032522 | 49 | 0.0 | 0.0 | 0.01 | 0.32 | 0.35 | 98 | 1004.9 | |
| 20260506032422 | 49 | 0.0 | 0.0 | 0.01 | 0.32 | 0.35 | 98 | 1004.8 | |
| 20260506032322 | 49 | 0.0 | 1.0 | 0.01 | 0.32 | 0.35 | 98 | 1004.8 | |
| 20260506032222 | 49 | 35 | 1.0 | 2.0 | 0.01 | 0.32 | 0.34 | 98 | 1004.9 |
| 20260506032122 | 49 | 0.0 | 0.0 | 0.01 | 0.32 | 0.34 | 98 | 1004.8 | |
| 20260506032022 | 49 | 35 | 3.0 | 3.0 | 0.02 | 0.32 | 0.34 | 98 | 1004.9 |
| 20260506031922 | 49 | 32 | 1.0 | 2.0 | 0.02 | 0.32 | 0.34 | 98 | 1004.8 |
| 20260506031822 | 49 | 0.0 | 0.0 | 0.02 | 0.32 | 0.33 | 98 | 1004.9 | |
| 20260506031722 | 49 | 0.0 | 0.0 | 0.02 | 0.32 | 0.33 | 98 | 1004.9 | |
| 20260506031622 | 49 | 24 | 1.0 | 1.0 | 0.02 | 0.32 | 0.33 | 98 | 1004.9 |
| 20260506031523 | 49 | 0.0 | 0.0 | 0.02 | 0.32 | 0.32 | 98 | 1004.9 | |
| 20260506031422 | 49 | 0.0 | 0.0 | 0.02 | 0.32 | 0.32 | 98 | 1004.9 | |
| 20260506031322 | 49 | 0.0 | 0.0 | 0.02 | 0.32 | 0.32 | 98 | 1004.9 | |
| 20260506031222 | 49 | 0.0 | 0.0 | 0.02 | 0.32 | 0.32 | 98 | 1005.0 | |
| 20260506031122 | 49 | 29 | 3.0 | 3.0 | 0.02 | 0.32 | 0.31 | 98 | 1005.0 |
| 20260506031022 | 49 | 0.0 | 0.0 | 0.02 | 0.32 | 0.31 | 98 | 1005.0 | |
| 20260506030922 | 50 | 0.0 | 0.0 | 0.02 | 0.32 | 0.31 | 98 | 1005.0 | |
| 20260506030822 | 50 | 0.0 | 0.0 | 0.02 | 0.32 | 0.31 | 98 | 1005.0 | |
| 20260506030722 | 50 | 0.0 | 0.0 | 0.02 | 0.32 | 0.31 | 98 | 1005.1 | |
| 20260506030622 | 50 | 0.0 | 0.0 | 0.02 | 0.32 | 0.31 | 98 | 1005.1 | |
| 20260506030522 | 50 | 0.0 | 0.0 | 0.02 | 0.32 | 0.31 | 98 | 1005.1 | |
| 20260506030423 | 50 | 0.0 | 0.0 | 0.02 | 0.32 | 0.31 | 98 | 1005.1 | |
| 20260506030321 | 50 | 0.0 | 0.0 | 0.02 | 0.32 | 0.31 | 98 | 1005.1 | |
| 20260506030222 | 50 | 0.0 | 0.0 | 0.02 | 0.32 | 0.31 | 98 | 1005.1 | |
| 20260506030122 | 50 | 34 | 1.0 | 1.0 | 0.02 | 0.32 | 0.31 | 98 | 1005.0 |
| 20260506030023 | 50 | 0.0 | 1.0 | 0.02 | 0.32 | 0.31 | 98 | 1005.1 | |
| 20260506025922 | 50 | 0.0 | 0.0 | 0.02 | 0.32 | 0.31 | 98 | 1005.1 | |
| 20260506025822 | 50 | 0.0 | 0.0 | 0.02 | 0.32 | 0.30 | 98 | 1005.1 | |
| 20260506025722 | 50 | 0.0 | 0.0 | 0.02 | 0.32 | 0.30 | 98 | 1005.1 | |
| 20260506025622 | 50 | 0.0 | 0.0 | 0.02 | 0.32 | 0.30 | 98 | 1005.1 | |
| 20260506025522 | 50 | 41 | 1.0 | 2.0 | 0.02 | 0.32 | 0.30 | 98 | 1005.1 |
| 20260506025422 | 50 | 0.0 | 0.0 | 0.02 | 0.32 | 0.30 | 98 | 1005.1 | |
| 20260506025323 | 50 | 43 | 1.0 | 1.0 | 0.02 | 0.32 | 0.30 | 98 | 1005.1 |
| 20260506025222 | 50 | 0.0 | 0.0 | 0.02 | 0.32 | 0.30 | 98 | 1005.2 | |
| 20260506025122 | 50 | 0.0 | 0.0 | 0.02 | 0.32 | 0.30 | 98 | 1005.1 | |
| 20260506025022 | 50 | 0.0 | 0.0 | 0.02 | 0.32 | 0.30 | 98 | 1005.1 | |
| 20260506024922 | 50 | 0.0 | 0.0 | 0.02 | 0.32 | 0.29 | 98 | 1005.1 | |
| 20260506024822 | 50 | 42 | 2.0 | 2.0 | 0.02 | 0.32 | 0.29 | 98 | 1005.2 |
| 20260506024722 | 50 | 0.0 | 0.0 | 0.02 | 0.32 | 0.29 | 98 | 1005.1 | |
| 20260506024622 | 50 | 0.0 | 0.0 | 0.02 | 0.32 | 0.29 | 98 | 1005.2 | |
| 20260506024522 | 50 | 0.0 | 0.0 | 0.02 | 0.32 | 0.29 | 98 | 1005.2 | |
| 20260506024422 | 50 | 0.0 | 0.0 | 0.02 | 0.32 | 0.29 | 98 | 1005.2 | |
| 20260506024322 | 50 | 36 | 1.0 | 1.0 | 0.02 | 0.32 | 0.29 | 98 | 1005.3 |
| 20260506024223 | 50 | 0.0 | 0.0 | 0.02 | 0.32 | 0.29 | 98 | 1005.3 | |
| 20260506024122 | 50 | 0.0 | 0.0 | 0.02 | 0.32 | 0.29 | 98 | 1005.2 | |
| 20260506024022 | 50 | 0.0 | 0.0 | 0.01 | 0.31 | 0.28 | 98 | 1005.3 | |
| 20260506023922 | 50 | 36 | 1.0 | 1.0 | 0.01 | 0.31 | 0.28 | 98 | 1005.3 |
| 20260506023822 | 50 | 0.0 | 0.0 | 0.01 | 0.31 | 0.28 | 98 | 1005.3 | |
| 20260506023722 | 50 | 0.0 | 0.0 | 0.01 | 0.31 | 0.28 | 98 | 1005.3 | |
| 20260506023622 | 50 | 0.0 | 0.0 | 0.01 | 0.31 | 0.28 | 98 | 1005.3 | |
| 20260506023522 | 50 | 0.0 | 0.0 | 0.01 | 0.31 | 0.28 | 98 | 1005.3 | |
| 20260506023422 | 50 | 0.0 | 0.0 | 0.01 | 0.31 | 0.28 | 98 | 1005.4 | |
| 20260506023322 | 50 | 0.0 | 0.0 | 0.01 | 0.31 | 0.28 | 98 | 1005.4 | |
| 20260506023222 | 50 | 0.0 | 0.0 | 0.01 | 0.31 | 0.28 | 98 | 1005.3 | |
| 20260506023122 | 50 | 0.0 | 0.0 | 0.01 | 0.31 | 0.28 | 98 | 1005.3 | |
| 20260506023022 | 50 | 0.0 | 0.0 | 0.01 | 0.31 | 0.28 | 98 | 1005.3 | |
| 20260506022922 | 50 | 0.0 | 0.0 | 0.01 | 0.31 | 0.28 | 98 | 1005.3 | |
| 20260506022822 | 50 | 0.0 | 0.0 | 0.01 | 0.31 | 0.28 | 98 | 1005.4 | |
| 20260506022723 | 50 | 0.0 | 0.0 | 0.01 | 0.31 | 0.28 | 98 | 1005.3 | |
| 20260506022622 | 50 | 0.0 | 0.0 | 0.01 | 0.31 | 0.28 | 98 | 1005.4 | |
| 20260506022522 | 50 | 0.0 | 0.0 | 0.01 | 0.31 | 0.28 | 98 | 1005.4 | |
| 20260506022422 | 50 | 0.0 | 0.0 | 0.01 | 0.31 | 0.28 | 98 | 1005.4 | |
| 20260506022322 | 50 | 0.0 | 1.0 | 0.01 | 0.31 | 0.28 | 98 | 1005.4 | |
| 20260506022222 | 50 | 0.0 | 0.0 | 0.01 | 0.31 | 0.28 | 98 | 1005.4 | |
| 20260506022122 | 50 | 0.0 | 0.0 | 0.01 | 0.31 | 0.28 | 98 | 1005.4 | |
| 20260506022023 | 50 | 0.0 | 0.0 | 0.00 | 0.31 | 0.28 | 98 | 1005.4 | |
| 20260506021922 | 50 | 0.0 | 0.0 | 0.00 | 0.31 | 0.28 | 98 | 1005.4 | |
| 20260506021821 | 50 | 0.0 | 0.0 | 0.00 | 0.31 | 0.28 | 98 | 1005.5 | |
| 20260506021722 | 50 | 0.0 | 0.0 | 0.00 | 0.31 | 0.28 | 98 | 1005.4 | |
| 20260506021622 | 50 | 0.0 | 0.0 | 0.00 | 0.31 | 0.28 | 98 | 1005.4 | |
| 20260506021522 | 50 | 0.0 | 0.0 | 0.00 | 0.31 | 0.28 | 98 | 1005.5 | |
| 20260506021422 | 50 | 0.0 | 0.0 | 0.00 | 0.31 | 0.28 | 98 | 1005.5 | |
| 20260506021322 | 50 | 0.0 | 0.0 | 0.00 | 0.31 | 0.28 | 98 | 1005.5 | |
| 20260506021222 | 50 | 0.0 | 0.0 | 0.00 | 0.31 | 0.28 | 98 | 1005.5 | |
| 20260506021122 | 50 | 0.0 | 0.0 | 0.01 | 0.31 | 0.28 | 98 | 1005.5 | |
| 20260506021021 | 50 | 0.0 | 0.0 | 0.01 | 0.31 | 0.28 | 98 | 1005.5 | |
| 20260506020923 | 50 | 0.0 | 0.0 | 0.01 | 0.31 | 0.28 | 98 | 1005.5 | |
| 20260506020822 | 50 | 0.0 | 0.0 | 0.01 | 0.31 | 0.28 | 98 | 1005.5 | |
| 20260506020722 | 50 | 0.0 | 0.0 | 0.01 | 0.31 | 0.28 | 98 | 1005.5 | |
| 20260506020622 | 50 | 0.0 | 0.0 | 0.01 | 0.31 | 0.28 | 98 | 1005.5 | |
| 20260506020522 | 50 | 0.0 | 0.0 | 0.01 | 0.31 | 0.28 | 98 | 1005.5 | |
| 20260506020422 | 50 | 0.0 | 0.0 | 0.01 | 0.31 | 0.27 | 98 | 1005.5 | |
| 20260506020322 | 50 | 0.0 | 0.0 | 0.01 | 0.31 | 0.27 | 98 | 1005.6 | |
| 20260506020222 | 50 | 0.0 | 0.0 | 0.01 | 0.31 | 0.27 | 98 | 1005.5 | |
| 20260506020122 | 50 | 0.0 | 0.0 | 0.01 | 0.31 | 0.27 | 98 | 1005.6 | |
| 20260506020022 | 50 | 0.0 | 0.0 | 0.01 | 0.31 | 0.27 | 98 | 1005.6 | |
| 20260506015922 | 50 | 0.0 | 0.0 | 0.01 | 0.31 | 0.27 | 98 | 1005.6 | |
| 20260506015823 | 50 | 0.0 | 0.0 | 0.01 | 0.31 | 0.27 | 98 | 1005.6 | |
| 20260506015722 | 50 | 0.0 | 0.0 | 0.01 | 0.31 | 0.27 | 98 | 1005.6 | |
| 20260506015622 | 50 | 0.0 | 0.0 | 0.01 | 0.31 | 0.27 | 98 | 1005.6 | |
| 20260506015522 | 50 | 0.0 | 0.0 | 0.01 | 0.31 | 0.27 | 98 | 1005.6 | |
| 20260506015422 | 50 | 0.0 | 0.0 | 0.01 | 0.31 | 0.27 | 98 | 1005.6 | |
| 20260506015322 | 50 | 0.0 | 0.0 | 0.01 | 0.31 | 0.27 | 98 | 1005.6 | |
| 20260506015222 | 50 | 0.0 | 0.0 | 0.01 | 0.31 | 0.27 | 98 | 1005.6 | |
| 20260506015122 | 50 | 0.0 | 0.0 | 0.02 | 0.31 | 0.27 | 98 | 1005.6 | |
| 20260506015022 | 50 | 0.0 | 0.0 | 0.02 | 0.31 | 0.27 | 98 | 1005.6 | |
| 20260506014921 | 50 | 0.0 | 0.0 | 0.02 | 0.31 | 0.27 | 98 | 1005.6 | |
| 20260506014822 | 50 | 0.0 | 0.0 | 0.02 | 0.31 | 0.27 | 98 | 1005.6 | |
| 20260506014723 | 50 | 0.0 | 0.0 | 0.02 | 0.31 | 0.27 | 98 | 1005.6 | |
| 20260506014622 | 50 | 0.0 | 0.0 | 0.02 | 0.31 | 0.27 | 98 | 1005.6 | |
| 20260506014522 | 50 | 0.0 | 0.0 | 0.02 | 0.31 | 0.27 | 98 | 1005.6 | |
| 20260506014422 | 50 | 0.0 | 0.0 | 0.02 | 0.31 | 0.27 | 98 | 1005.6 | |
| 20260506014322 | 50 | 0.0 | 0.0 | 0.02 | 0.31 | 0.26 | 98 | 1005.6 | |
| 20260506014222 | 50 | 0.0 | 0.0 | 0.02 | 0.31 | 0.26 | 98 | 1005.7 | |
| 20260506014122 | 50 | 0.0 | 0.0 | 0.02 | 0.31 | 0.26 | 98 | 1005.6 | |
| 20260506014022 | 50 | 0.0 | 0.0 | 0.02 | 0.31 | 0.26 | 98 | 1005.7 | |
| 20260506013921 | 50 | 40 | 1.0 | 2.0 | 0.02 | 0.31 | 0.26 | 98 | 1005.6 |
| 20260506013822 | 50 | 0.0 | 0.0 | 0.02 | 0.31 | 0.26 | 98 | 1005.7 | |
| 20260506013722 | 50 | 0.0 | 0.0 | 0.03 | 0.31 | 0.26 | 98 | 1005.6 | |
| 20260506013623 | 50 | 0.0 | 0.0 | 0.03 | 0.31 | 0.26 | 98 | 1005.7 | |
| 20260506013522 | 50 | 16 | 2.0 | 3.0 | 0.03 | 0.31 | 0.26 | 98 | 1005.7 |
| 20260506013422 | 50 | 16 | 1.0 | 1.0 | 0.03 | 0.31 | 0.25 | 98 | 1005.7 |
| 20260506013322 | 50 | 0.0 | 0.0 | 0.03 | 0.31 | 0.25 | 98 | 1005.7 | |
| 20260506013222 | 50 | 0.0 | 0.0 | 0.03 | 0.31 | 0.25 | 98 | 1005.7 | |
| 20260506013121 | 50 | 0.0 | 0.0 | 0.03 | 0.31 | 0.25 | 98 | 1005.7 | |
| 20260506013022 | 50 | 0.0 | 0.0 | 0.03 | 0.31 | 0.25 | 98 | 1005.8 | |
| 20260506012922 | 50 | 32 | 2.0 | 2.0 | 0.04 | 0.31 | 0.25 | 98 | 1005.8 |
| 20260506012822 | 50 | 0.0 | 1.0 | 0.04 | 0.31 | 0.25 | 98 | 1005.7 | |
| 20260506012722 | 50 | 0.0 | 0.0 | 0.04 | 0.31 | 0.25 | 98 | 1005.8 | |
| 20260506012622 | 50 | 48 | 1.0 | 1.0 | 0.04 | 0.31 | 0.25 | 98 | 1005.7 |
| 20260506012522 | 50 | 0.0 | 0.0 | 0.04 | 0.31 | 0.25 | 98 | 1005.8 | |
| 20260506012422 | 50 | 45 | 2.0 | 2.0 | 0.04 | 0.31 | 0.25 | 98 | 1005.8 |
| 20260506012322 | 50 | 0.0 | 0.0 | 0.04 | 0.31 | 0.25 | 98 | 1005.8 | |
| 20260506012222 | 50 | 0.0 | 0.0 | 0.04 | 0.31 | 0.24 | 98 | 1005.8 | |
| 20260506012122 | 50 | 32 | 1.0 | 1.0 | 0.04 | 0.31 | 0.24 | 98 | 1005.8 |
| 20260506012022 | 50 | 0.0 | 0.0 | 0.04 | 0.31 | 0.24 | 98 | 1005.8 | |
| 20260506011922 | 50 | 0.0 | 0.0 | 0.04 | 0.31 | 0.24 | 98 | 1005.8 | |
| 20260506011822 | 50 | 0.0 | 0.0 | 0.04 | 0.31 | 0.24 | 98 | 1005.9 | |
| 20260506011722 | 50 | 0.0 | 0.0 | 0.04 | 0.31 | 0.24 | 98 | 1005.8 | |
| 20260506011622 | 50 | 28 | 1.0 | 2.0 | 0.04 | 0.31 | 0.24 | 98 | 1005.8 |
| 20260506011522 | 50 | 40 | 3.0 | 3.0 | 0.04 | 0.31 | 0.24 | 98 | 1005.9 |
| 20260506011423 | 50 | 48 | 2.0 | 3.0 | 0.04 | 0.31 | 0.24 | 98 | 1005.8 |
| 20260506011321 | 50 | 333 | 2.0 | 2.0 | 0.04 | 0.31 | 0.24 | 98 | 1005.8 |
| 20260506011221 | 50 | 48 | 3.0 | 3.0 | 0.04 | 0.31 | 0.24 | 98 | 1005.9 |
| 20260506011122 | 50 | 40 | 4.0 | 4.0 | 0.03 | 0.30 | 0.24 | 98 | 1005.8 |
| 20260506011022 | 50 | 0.0 | 0.0 | 0.04 | 0.30 | 0.24 | 98 | 1005.8 | |
| 20260506010922 | 50 | 0.0 | 0.0 | 0.04 | 0.30 | 0.24 | 98 | 1005.9 | |
| 20260506010821 | 50 | 0.0 | 0.0 | 0.04 | 0.30 | 0.24 | 98 | 1005.9 | |
| 20260506010722 | 50 | 54 | 3.0 | 3.0 | 0.04 | 0.30 | 0.24 | 98 | 1005.9 |
| 20260506010622 | 50 | 0.0 | 1.0 | 0.04 | 0.30 | 0.24 | 98 | 1005.9 | |
| 20260506010522 | 51 | 0.0 | 0.0 | 0.04 | 0.30 | 0.24 | 98 | 1006.0 | |
| 20260506010422 | 51 | 0.0 | 0.0 | 0.04 | 0.30 | 0.24 | 98 | 1006.0 | |
| 20260506010323 | 51 | 0.0 | 0.0 | 0.04 | 0.30 | 0.24 | 98 | 1006.0 | |
| 20260506010221 | 51 | 0.0 | 1.0 | 0.04 | 0.30 | 0.24 | 98 | 1006.0 | |
| 20260506010121 | 51 | 46 | 1.0 | 1.0 | 0.05 | 0.30 | 0.24 | 98 | 1006.0 |
| 20260506010022 | 51 | 42 | 2.0 | 2.0 | 0.05 | 0.30 | 0.23 | 98 | 1006.0 |
| 20260506005922 | 51 | 59 | 3.0 | 3.0 | 0.05 | 0.30 | 0.23 | 98 | 1006.0 |
| 20260506005822 | 51 | 0.0 | 0.0 | 0.05 | 0.30 | 0.23 | 98 | 1006.0 | |
| 20260506005722 | 51 | 0.0 | 0.0 | 0.05 | 0.30 | 0.23 | 98 | 1006.0 | |
| 20260506005622 | 51 | 0.0 | 0.0 | 0.05 | 0.30 | 0.23 | 98 | 1006.0 | |
| 20260506005522 | 51 | 0.0 | 0.0 | 0.06 | 0.30 | 0.23 | 98 | 1006.1 | |
| 20260506005421 | 51 | 0.0 | 0.0 | 0.06 | 0.30 | 0.23 | 98 | 1006.1 | |
| 20260506005321 | 51 | 0.0 | 0.0 | 0.06 | 0.30 | 0.23 | 98 | 1006.1 | |
| 20260506005223 | 51 | 0.0 | 1.0 | 0.06 | 0.30 | 0.23 | 98 | 1006.1 | |
| 20260506005122 | 51 | 61 | 1.0 | 2.0 | 0.05 | 0.29 | 0.22 | 98 | 1006.1 |
| 20260506005021 | 51 | 42 | 1.0 | 1.0 | 0.05 | 0.29 | 0.22 | 98 | 1006.1 |
| 20260506004922 | 51 | 0.0 | 0.0 | 0.05 | 0.29 | 0.22 | 98 | 1006.1 | |
| 20260506004822 | 51 | 0.0 | 0.0 | 0.05 | 0.29 | 0.22 | 98 | 1006.1 | |
| 20260506004721 | 51 | 0.0 | 0.0 | 0.05 | 0.29 | 0.22 | 98 | 1006.1 | |
| 20260506004622 | 51 | 0.0 | 0.0 | 0.05 | 0.29 | 0.22 | 98 | 1006.1 | |
| 20260506004522 | 51 | 0.0 | 0.0 | 0.05 | 0.29 | 0.22 | 98 | 1006.2 | |
| 20260506004422 | 51 | 0.0 | 1.0 | 0.05 | 0.29 | 0.22 | 98 | 1006.2 | |
| 20260506004322 | 51 | 0.0 | 0.0 | 0.04 | 0.28 | 0.21 | 98 | 1006.2 | |
| 20260506004221 | 51 | 0.0 | 0.0 | 0.04 | 0.28 | 0.21 | 98 | 1006.2 | |
| 20260506004122 | 51 | 38 | 1.0 | 1.0 | 0.05 | 0.28 | 0.21 | 98 | 1006.2 |